Time,TemperatureF,DewpointF,PressureIn,WindDirection,WindDirectionDegrees,WindSpeedMPH,WindSpeedGustMPH,Humidity,HourlyPrecipIn,Conditions,Clouds,dailyrainin,SoftwareType,DateUTC
2013-08-29 00:00:00,72.3,48.0,29.85,ESE,112,0.0,0.0,42,0.00,,,0.00,VWS V14.01,2013-08-29 05:00:00,
2013-08-29 00:01:00,71.1,48.7,29.85,SE,135,0.0,0.0,45,0.00,,,0.00,VWS V14.01,2013-08-29 05:01:00,
2013-08-29 00:02:00,71.4,49.0,29.85,ESE,112,0.0,0.0,45,0.00,,,0.00,VWS V14.01,2013-08-29 05:02:00,
2013-08-29 00:04:00,71.2,48.8,29.85,ESE,112,0.0,0.9,45,0.00,,,0.00,VWS V14.01,2013-08-29 05:04:00,
2013-08-29 00:06:00,71.1,48.7,29.85,SE,135,0.0,0.0,45,0.00,,,0.00,VWS V14.01,2013-08-29 05:06:00,
2013-08-29 00:08:00,71.2,48.8,29.85,ESE,112,0.0,0.0,45,0.00,,,0.00,VWS V14.01,2013-08-29 05:08:00,
2013-08-29 00:10:00,71.2,48.8,29.85,SE,135,0.0,0.0,45,0.00,,,0.00,VWS V14.01,2013-08-29 05:10:00,
2013-08-29 00:11:00,71.1,48.7,29.85,SE,135,0.0,0.0,45,0.00,,,0.00,VWS V14.01,2013-08-29 05:11:00,
2013-08-29 00:12:00,71.1,48.7,29.85,SE,135,0.0,0.0,45,0.00,,,0.00,VWS V14.01,2013-08-29 05:12:00,
2013-08-29 00:14:00,71.1,48.7,29.85,SE,135,0.0,0.0,45,0.00,,,0.00,VWS V14.01,2013-08-29 05:14:00,
2013-08-29 00:16:00,71.1,49.3,29.85,ESE,112,0.0,0.0,46,0.00,,,0.00,VWS V14.01,2013-08-29 05:16:00,
2013-08-29 00:18:00,71.1,48.7,29.85,SSE,158,0.0,0.0,45,0.00,,,0.00,VWS V14.01,2013-08-29 05:18:00,
2013-08-29 00:20:00,71.1,48.7,29.85,SE,135,0.0,1.6,45,0.00,,,0.00,VWS V14.01,2013-08-29 05:20:00,
2013-08-29 00:21:00,71.1,49.3,29.85,SE,135,0.0,0.0,46,0.00,,,0.00,VWS V14.01,2013-08-29 05:21:00,
2013-08-29 00:22:00,71.1,48.7,29.85,SE,135,0.0,0.0,45,0.00,,,0.00,VWS V14.01,2013-08-29 05:22:00,
2013-08-29 00:24:00,72.0,48.3,29.85,ESE,112,0.0,0.0,43,0.00,,,0.00,VWS V14.01,2013-08-29 05:24:00,
2013-08-29 00:26:00,71.1,49.3,29.85,SE,135,0.0,0.0,46,0.00,,,0.00,VWS V14.01,2013-08-29 05:26:00,
2013-08-29 00:28:00,71.1,49.3,29.85,ESE,112,0.0,0.0,46,0.00,,,0.00,VWS V14.01,2013-08-29 05:28:00,
2013-08-29 00:30:00,71.1,49.3,29.85,SE,135,0.0,0.0,46,0.00,,,0.00,VWS V14.01,2013-08-29 05:30:00,
2013-08-29 00:31:00,71.1,49.3,29.85,SE,135,0.0,0.0,46,0.00,,,0.00,VWS V14.01,2013-08-29 05:31:00,
2013-08-29 00:32:00,71.1,49.3,29.85,SE,135,0.0,0.0,46,0.00,,,0.00,VWS V14.01,2013-08-29 05:32:00,
2013-08-29 00:34:00,71.1,49.3,29.85,SE,135,0.0,1.1,46,0.00,,,0.00,VWS V14.01,2013-08-29 05:34:00,
2013-08-29 00:36:00,71.1,49.3,29.85,ESE,112,0.0,0.9,46,0.00,,,0.00,VWS V14.01,2013-08-29 05:36:00,
2013-08-29 00:38:00,71.1,49.3,29.85,ESE,112,0.0,1.6,46,0.00,,,0.00,VWS V14.01,2013-08-29 05:38:00,
2013-08-29 00:40:00,71.1,49.3,29.85,ESE,112,0.0,0.0,46,0.00,,,0.00,VWS V14.01,2013-08-29 05:40:00,
2013-08-29 00:41:00,71.1,49.3,29.85,SSE,158,0.0,0.9,46,0.00,,,0.00,VWS V14.01,2013-08-29 05:41:00,
2013-08-29 00:42:00,71.1,49.3,29.85,SE,135,0.0,0.0,46,0.00,,,0.00,VWS V14.01,2013-08-29 05:42:00,
2013-08-29 00:44:00,71.1,49.3,29.85,ENE,68,3.4,3.4,46,0.00,,,0.00,VWS V14.01,2013-08-29 05:44:00,
2013-08-29 00:46:00,70.9,49.1,29.85,SE,135,0.0,0.0,46,0.00,,,0.00,VWS V14.01,2013-08-29 05:46:00,
2013-08-29 00:48:00,71.1,49.3,29.85,SE,135,0.0,1.3,46,0.00,,,0.00,VWS V14.01,2013-08-29 05:48:00,
2013-08-29 00:50:00,71.1,49.3,29.85,East,90,0.0,0.0,46,0.00,,,0.00,VWS V14.01,2013-08-29 05:50:00,
2013-08-29 00:51:00,70.9,49.7,29.85,ESE,112,0.0,0.0,47,0.00,,,0.00,VWS V14.01,2013-08-29 05:51:00,
2013-08-29 00:52:00,71.1,49.3,29.85,ESE,112,3.4,3.4,46,0.00,,,0.00,VWS V14.01,2013-08-29 05:52:00,
2013-08-29 00:54:00,71.1,49.3,29.85,SSE,158,0.0,0.0,46,0.00,,,0.00,VWS V14.01,2013-08-29 05:54:00,
2013-08-29 00:56:00,70.9,49.7,29.85,NNE,22,4.7,4.7,47,0.00,,,0.00,VWS V14.01,2013-08-29 05:56:00,
2013-08-29 00:58:00,70.9,49.1,29.85,SSE,158,0.0,0.0,46,0.00,,,0.00,VWS V14.01,2013-08-29 05:58:00,
2013-08-29 01:00:00,70.9,49.1,29.85,ESE,112,0.0,1.1,46,0.00,,,0.00,VWS V14.01,2013-08-29 06:00:00,
2013-08-29 01:01:00,70.9,49.7,29.85,NNW,338,0.0,0.0,47,0.00,,,0.00,VWS V14.01,2013-08-29 06:01:00,
2013-08-29 01:02:00,70.9,49.7,29.85,WNW,292,0.0,0.0,47,0.00,,,0.00,VWS V14.01,2013-08-29 06:02:00,
2013-08-29 01:04:00,70.9,49.7,29.85,WNW,292,3.4,3.4,47,0.00,,,0.00,VWS V14.01,2013-08-29 06:04:00,
2013-08-29 01:06:00,70.7,49.5,29.85,West,270,0.0,0.0,47,0.00,,,0.00,VWS V14.01,2013-08-29 06:06:00,
2013-08-29 01:08:00,71.1,49.8,29.85,NE,45,0.0,0.9,47,0.00,,,0.00,VWS V14.01,2013-08-29 06:08:00,
2013-08-29 01:10:00,70.9,49.7,29.85,SE,135,0.0,0.0,47,0.00,,,0.00,VWS V14.01,2013-08-29 06:10:00,
2013-08-29 01:11:00,70.7,50.1,29.85,West,270,0.0,0.0,48,0.00,,,0.00,VWS V14.01,2013-08-29 06:11:00,
2013-08-29 01:12:00,70.9,49.7,29.85,West,270,0.0,0.0,47,0.00,,,0.00,VWS V14.01,2013-08-29 06:12:00,
2013-08-29 01:14:00,70.9,49.7,29.85,West,270,0.0,0.0,47,0.00,,,0.00,VWS V14.01,2013-08-29 06:14:00,
2013-08-29 01:16:00,70.7,50.1,29.85,ESE,112,0.0,0.0,48,0.00,,,0.00,VWS V14.01,2013-08-29 06:16:00,
2013-08-29 01:18:00,70.7,49.5,29.85,West,270,0.0,0.0,47,0.00,,,0.00,VWS V14.01,2013-08-29 06:18:00,
2013-08-29 01:20:00,70.7,50.1,29.85,West,270,0.0,0.0,48,0.00,,,0.00,VWS V14.01,2013-08-29 06:20:00,
2013-08-29 01:21:00,70.5,49.9,29.85,ESE,112,0.0,0.0,48,0.00,,,0.00,VWS V14.01,2013-08-29 06:21:00,
2013-08-29 01:22:00,70.7,50.1,29.85,ESE,112,0.0,0.0,48,0.00,,,0.00,VWS V14.01,2013-08-29 06:22:00,
2013-08-29 01:24:00,70.7,50.1,29.85,ESE,112,0.0,0.0,48,0.00,,,0.00,VWS V14.01,2013-08-29 06:24:00,
2013-08-29 01:26:00,70.5,50.5,29.85,WSW,248,6.7,6.7,49,0.00,,,0.00,VWS V14.01,2013-08-29 06:26:00,
2013-08-29 01:28:00,70.5,49.9,29.85,ESE,112,0.0,0.0,48,0.00,,,0.00,VWS V14.01,2013-08-29 06:28:00,
2013-08-29 01:30:00,70.5,49.9,29.85,ESE,112,0.0,0.0,48,0.00,,,0.00,VWS V14.01,2013-08-29 06:30:00,
2013-08-29 01:31:00,70.5,50.5,29.85,SE,135,0.0,0.0,49,0.00,,,0.00,VWS V14.01,2013-08-29 06:31:00,
2013-08-29 01:32:00,70.5,49.9,29.85,ESE,112,0.0,0.0,48,0.00,,,0.00,VWS V14.01,2013-08-29 06:32:00,
2013-08-29 01:34:00,70.5,49.9,29.85,SE,135,0.0,1.3,48,0.00,,,0.00,VWS V14.01,2013-08-29 06:34:00,
2013-08-29 01:36:00,70.5,51.0,29.82,SE,135,0.0,0.0,50,0.00,,,0.00,VWS V14.01,2013-08-29 06:36:00,
2013-08-29 01:38:00,70.7,50.6,29.85,SE,135,0.0,0.0,49,0.00,,,0.00,VWS V14.01,2013-08-29 06:38:00,
2013-08-29 01:40:00,70.7,50.6,29.85,SE,135,0.0,0.0,49,0.00,,,0.00,VWS V14.01,2013-08-29 06:40:00,
2013-08-29 01:41:00,70.5,51.0,29.82,WNW,292,0.0,0.0,50,0.00,,,0.00,VWS V14.01,2013-08-29 06:41:00,
2013-08-29 01:42:00,70.5,50.5,29.85,SE,135,0.0,0.0,49,0.00,,,0.00,VWS V14.01,2013-08-29 06:42:00,
2013-08-29 01:44:00,70.5,50.5,29.82,SE,135,0.0,0.0,49,0.00,,,0.00,VWS V14.01,2013-08-29 06:44:00,
2013-08-29 01:46:00,70.5,51.0,29.82,West,270,0.0,0.0,50,0.00,,,0.00,VWS V14.01,2013-08-29 06:46:00,
2013-08-29 01:48:00,70.5,51.0,29.82,WNW,292,0.0,0.0,50,0.00,,,0.00,VWS V14.01,2013-08-29 06:48:00,
2013-08-29 01:50:00,70.5,51.0,29.82,WNW,292,0.0,0.0,50,0.00,,,0.00,VWS V14.01,2013-08-29 06:50:00,
2013-08-29 01:51:00,70.7,51.7,29.82,SE,135,0.0,0.0,51,0.00,,,0.00,VWS V14.01,2013-08-29 06:51:00,
2013-08-29 01:52:00,70.5,51.0,29.82,WSW,248,0.0,0.0,50,0.00,,,0.00,VWS V14.01,2013-08-29 06:52:00,
2013-08-29 01:54:00,70.5,51.0,29.82,SE,135,0.0,0.0,50,0.00,,,0.00,VWS V14.01,2013-08-29 06:54:00,
2013-08-29 01:56:00,70.7,51.7,29.82,ESE,112,4.0,4.0,51,0.00,,,0.00,VWS V14.01,2013-08-29 06:56:00,
2013-08-29 01:58:00,70.7,51.7,29.82,SE,135,0.0,1.6,51,0.00,,,0.00,VWS V14.01,2013-08-29 06:58:00,
2013-08-29 02:00:00,70.7,51.2,29.82,SE,135,0.0,0.0,50,0.00,,,0.00,VWS V14.01,2013-08-29 07:00:00,
2013-08-29 02:01:00,70.7,51.7,29.82,WNW,292,0.0,1.3,51,0.00,,,0.00,VWS V14.01,2013-08-29 07:01:00,
2013-08-29 02:02:00,70.7,51.7,29.82,ESE,112,0.0,0.0,51,0.00,,,0.00,VWS V14.01,2013-08-29 07:02:00,
2013-08-29 02:04:00,70.7,51.7,29.82,ESE,112,0.0,0.0,51,0.00,,,0.00,VWS V14.01,2013-08-29 07:04:00,
2013-08-29 02:06:00,70.7,51.7,29.82,SSE,158,0.0,0.0,51,0.00,,,0.00,VWS V14.01,2013-08-29 07:06:00,
2013-08-29 02:08:00,70.7,51.7,29.82,SSE,158,0.0,0.0,51,0.00,,,0.00,VWS V14.01,2013-08-29 07:08:00,
2013-08-29 02:10:00,70.7,51.7,29.82,West,270,4.0,4.0,51,0.00,,,0.00,VWS V14.01,2013-08-29 07:10:00,
2013-08-29 02:11:00,70.7,51.7,29.82,ESE,112,0.0,0.9,51,0.00,,,0.00,VWS V14.01,2013-08-29 07:11:00,
2013-08-29 02:12:00,70.7,51.7,29.82,WNW,292,0.0,0.0,51,0.00,,,0.00,VWS V14.01,2013-08-29 07:12:00,
2013-08-29 02:14:00,70.7,51.7,29.82,SSE,158,0.0,0.0,51,0.00,,,0.00,VWS V14.01,2013-08-29 07:14:00,
2013-08-29 02:16:00,70.7,51.7,29.82,SE,135,6.0,6.0,51,0.00,,,0.00,VWS V14.01,2013-08-29 07:16:00,
2013-08-29 02:18:00,70.7,51.7,29.82,SE,135,0.0,0.0,51,0.00,,,0.00,VWS V14.01,2013-08-29 07:18:00,
2013-08-29 02:20:00,70.7,52.2,29.82,SE,135,0.0,1.3,52,0.00,,,0.00,VWS V14.01,2013-08-29 07:20:00,
2013-08-29 02:21:00,70.7,52.2,29.82,SE,135,3.4,3.4,52,0.00,,,0.00,VWS V14.01,2013-08-29 07:21:00,
2013-08-29 02:22:00,70.7,52.2,29.82,North,0,0.0,1.3,52,0.00,,,0.00,VWS V14.01,2013-08-29 07:22:00,
2013-08-29 02:24:00,70.7,51.7,29.82,ESE,112,0.0,0.9,51,0.00,,,0.00,VWS V14.01,2013-08-29 07:24:00,
2013-08-29 02:26:00,70.5,52.6,29.82,East,90,0.0,2.2,53,0.00,,,0.00,VWS V14.01,2013-08-29 07:26:00,
2013-08-29 02:28:00,70.7,52.2,29.82,ESE,112,4.0,4.0,52,0.00,,,0.00,VWS V14.01,2013-08-29 07:28:00,
2013-08-29 02:30:00,70.7,52.2,29.82,ESE,112,2.7,2.7,52,0.00,,,0.00,VWS V14.01,2013-08-29 07:30:00,
2013-08-29 02:31:00,70.5,53.1,29.82,East,90,0.0,1.3,54,0.00,,,0.00,VWS V14.01,2013-08-29 07:31:00,
2013-08-29 02:32:00,70.7,52.2,29.82,SE,135,0.0,1.1,52,0.00,,,0.00,VWS V14.01,2013-08-29 07:32:00,
2013-08-29 02:34:00,70.5,52.1,29.82,ESE,112,4.0,4.0,52,0.00,,,0.00,VWS V14.01,2013-08-29 07:34:00,
2013-08-29 02:36:00,70.5,53.1,29.82,East,90,2.7,2.7,54,0.00,,,0.00,VWS V14.01,2013-08-29 07:36:00,
2013-08-29 02:38:00,70.7,52.8,29.82,ESE,112,0.0,2.0,53,0.00,,,0.00,VWS V14.01,2013-08-29 07:38:00,
2013-08-29 02:40:00,70.5,52.6,29.82,ESE,112,2.7,2.7,53,0.00,,,0.00,VWS V14.01,2013-08-29 07:40:00,
2013-08-29 02:41:00,70.7,54.2,29.82,East,90,4.0,4.0,56,0.00,,,0.00,VWS V14.01,2013-08-29 07:41:00,
2013-08-29 02:42:00,70.5,53.1,29.82,East,90,0.0,1.1,54,0.00,,,0.00,VWS V14.01,2013-08-29 07:42:00,
2013-08-29 02:44:00,70.5,53.1,29.82,East,90,0.0,2.0,54,0.00,,,0.00,VWS V14.01,2013-08-29 07:44:00,
2013-08-29 02:46:00,70.9,54.4,29.82,NE,45,4.7,4.7,56,0.00,,,0.00,VWS V14.01,2013-08-29 07:46:00,
2013-08-29 02:48:00,70.7,53.3,29.82,East,90,6.0,6.0,54,0.00,,,0.00,VWS V14.01,2013-08-29 07:48:00,
2013-08-29 02:50:00,70.7,53.8,29.82,ESE,112,3.4,3.4,55,0.00,,,0.00,VWS V14.01,2013-08-29 07:50:00,
2013-08-29 02:51:00,71.1,54.6,29.82,ESE,112,0.0,0.0,56,0.00,,,0.00,VWS V14.01,2013-08-29 07:51:00,
2013-08-29 02:52:00,70.7,54.2,29.82,ESE,112,10.1,10.1,56,0.00,,,0.00,VWS V14.01,2013-08-29 07:52:00,
2013-08-29 02:54:00,70.9,54.4,29.82,ESE,112,4.0,4.0,56,0.00,,,0.00,VWS V14.01,2013-08-29 07:54:00,
2013-08-29 02:56:00,71.1,54.6,29.82,SW,225,3.4,3.4,56,0.00,,,0.00,VWS V14.01,2013-08-29 07:56:00,
2013-08-29 02:58:00,70.9,54.4,29.82,ESE,112,0.0,2.0,56,0.00,,,0.00,VWS V14.01,2013-08-29 07:58:00,
2013-08-29 03:00:00,71.1,54.6,29.82,SE,135,0.0,0.0,56,0.00,,,0.00,VWS V14.01,2013-08-29 08:00:00,
2013-08-29 03:01:00,71.1,55.1,29.82,SE,135,0.0,0.0,57,0.00,,,0.00,VWS V14.01,2013-08-29 08:01:00,
2013-08-29 03:02:00,71.1,54.6,29.82,ESE,112,0.0,1.1,56,0.00,,,0.00,VWS V14.01,2013-08-29 08:02:00,
2013-08-29 03:04:00,71.1,55.1,29.82,NNE,22,3.4,3.4,57,0.00,,,0.00,VWS V14.01,2013-08-29 08:04:00,
2013-08-29 03:06:00,71.1,54.6,29.82,North,0,0.0,0.0,56,0.00,,,0.00,VWS V14.01,2013-08-29 08:06:00,
2013-08-29 03:08:00,71.1,55.1,29.82,SSE,158,0.0,1.6,57,0.00,,,0.00,VWS V14.01,2013-08-29 08:08:00,
2013-08-29 03:10:00,71.1,55.1,29.82,ESE,112,0.0,1.6,57,0.00,,,0.00,VWS V14.01,2013-08-29 08:10:00,
2013-08-29 03:11:00,71.2,55.2,29.82,NNW,338,0.0,0.9,57,0.00,,,0.00,VWS V14.01,2013-08-29 08:11:00,
2013-08-29 03:12:00,71.1,55.1,29.82,SE,135,0.0,0.0,57,0.00,,,0.00,VWS V14.01,2013-08-29 08:12:00,
2013-08-29 03:14:00,71.1,55.1,29.82,WNW,292,0.0,0.0,57,0.00,,,0.00,VWS V14.01,2013-08-29 08:14:00,
2013-08-29 03:16:00,71.2,55.7,29.82,SE,135,0.0,0.0,58,0.00,,,0.00,VWS V14.01,2013-08-29 08:16:00,
2013-08-29 03:18:00,71.1,55.1,29.82,ESE,112,0.0,0.0,57,0.00,,,0.00,VWS V14.01,2013-08-29 08:18:00,
2013-08-29 03:20:00,71.2,55.2,29.82,NNW,338,0.0,1.3,57,0.00,,,0.00,VWS V14.01,2013-08-29 08:20:00,
2013-08-29 03:21:00,71.2,55.7,29.82,North,0,0.0,0.0,58,0.00,,,0.00,VWS V14.01,2013-08-29 08:21:00,
2013-08-29 03:22:00,71.2,55.2,29.82,SE,135,0.0,0.0,57,0.00,,,0.00,VWS V14.01,2013-08-29 08:22:00,
2013-08-29 03:24:00,71.2,55.2,29.82,East,90,4.0,4.0,57,0.00,,,0.00,VWS V14.01,2013-08-29 08:24:00,
2013-08-29 03:26:00,71.4,55.9,29.82,ENE,68,10.1,10.1,58,0.00,,,0.00,VWS V14.01,2013-08-29 08:26:00,
2013-08-29 03:28:00,71.2,55.7,29.82,SE,135,0.0,0.0,58,0.00,,,0.00,VWS V14.01,2013-08-29 08:28:00,
2013-08-29 03:30:00,71.2,55.2,29.82,SE,135,0.0,0.0,57,0.00,,,0.00,VWS V14.01,2013-08-29 08:30:00,
2013-08-29 03:31:00,71.6,56.5,29.82,ESE,112,2.7,2.7,59,0.00,,,0.00,VWS V14.01,2013-08-29 08:31:00,
2013-08-29 03:32:00,71.4,56.4,29.82,SE,135,4.0,4.0,59,0.00,,,0.00,VWS V14.01,2013-08-29 08:32:00,
2013-08-29 03:34:00,71.4,55.9,29.82,East,90,0.0,0.0,58,0.00,,,0.00,VWS V14.01,2013-08-29 08:34:00,
2013-08-29 03:36:00,71.4,56.8,29.82,NNE,22,0.0,1.6,60,0.00,,,0.00,VWS V14.01,2013-08-29 08:36:00,
2013-08-29 03:38:00,71.6,56.5,29.82,SE,135,2.7,3.8,59,0.00,,,0.00,VWS V14.01,2013-08-29 08:38:00,
2013-08-29 03:40:00,71.6,56.5,29.82,ESE,112,0.0,2.7,59,0.00,,,0.00,VWS V14.01,2013-08-29 08:40:00,
2013-08-29 03:41:00,71.4,56.8,29.82,SW,225,8.1,8.1,60,0.00,,,0.00,VWS V14.01,2013-08-29 08:41:00,
2013-08-29 03:42:00,71.6,56.5,29.82,East,90,6.0,6.0,59,0.00,,,0.00,VWS V14.01,2013-08-29 08:42:00,
2013-08-29 03:44:00,71.6,56.5,29.82,ENE,68,8.7,8.7,59,0.00,,,0.00,VWS V14.01,2013-08-29 08:44:00,
2013-08-29 03:46:00,71.2,57.1,29.82,SE,135,6.0,6.0,61,0.00,,,0.00,VWS V14.01,2013-08-29 08:46:00,
2013-08-29 03:48:00,71.4,56.8,29.82,ESE,112,0.0,2.0,60,0.00,,,0.00,VWS V14.01,2013-08-29 08:48:00,
2013-08-29 03:50:00,71.4,56.8,29.82,SE,135,4.7,4.7,60,0.00,,,0.00,VWS V14.01,2013-08-29 08:50:00,
2013-08-29 03:51:00,71.1,57.0,29.82,ESE,112,4.0,4.0,61,0.00,,,0.00,VWS V14.01,2013-08-29 08:51:00,
2013-08-29 03:52:00,71.2,56.7,29.82,SE,135,0.0,2.7,60,0.00,,,0.00,VWS V14.01,2013-08-29 08:52:00,
2013-08-29 03:54:00,71.2,56.7,29.82,ESE,112,2.7,2.7,60,0.00,,,0.00,VWS V14.01,2013-08-29 08:54:00,
2013-08-29 03:56:00,70.9,56.8,29.82,East,90,4.0,4.0,61,0.00,,,0.00,VWS V14.01,2013-08-29 08:56:00,
2013-08-29 03:58:00,71.1,56.5,29.82,ENE,68,4.7,4.7,60,0.00,,,0.00,VWS V14.01,2013-08-29 08:58:00,
2013-08-29 04:00:00,71.1,57.0,29.82,ESE,112,0.0,1.6,61,0.00,,,0.00,VWS V14.01,2013-08-29 09:00:00,
2013-08-29 04:01:00,70.9,56.8,29.82,ESE,112,0.0,0.0,61,0.00,,,0.00,VWS V14.01,2013-08-29 09:01:00,
2013-08-29 04:02:00,71.1,57.0,29.82,ESE,112,4.0,4.0,61,0.00,,,0.00,VWS V14.01,2013-08-29 09:02:00,
2013-08-29 04:04:00,71.1,57.0,29.82,SSE,158,0.0,1.3,61,0.00,,,0.00,VWS V14.01,2013-08-29 09:04:00,
2013-08-29 04:06:00,70.9,56.8,29.79,SSE,158,6.7,6.7,61,0.00,,,0.00,VWS V14.01,2013-08-29 09:06:00,
2013-08-29 04:08:00,70.9,56.8,29.82,East,90,2.7,2.7,61,0.00,,,0.00,VWS V14.01,2013-08-29 09:08:00,
2013-08-29 04:10:00,70.9,56.8,29.82,ESE,112,0.0,2.0,61,0.00,,,0.00,VWS V14.01,2013-08-29 09:10:00,
2013-08-29 04:11:00,70.9,57.2,29.79,SE,135,0.0,1.3,62,0.00,,,0.00,VWS V14.01,2013-08-29 09:11:00,
2013-08-29 04:12:00,70.9,56.8,29.82,ESE,112,0.0,0.0,61,0.00,,,0.00,VWS V14.01,2013-08-29 09:12:00,
2013-08-29 04:14:00,70.9,56.8,29.80,ENE,68,4.0,4.0,61,0.00,,,0.00,VWS V14.01,2013-08-29 09:14:00,
2013-08-29 04:16:00,71.1,57.8,29.79,SSE,158,0.0,0.0,63,0.00,,,0.00,VWS V14.01,2013-08-29 09:16:00,
2013-08-29 04:18:00,70.9,57.2,29.80,NNE,22,3.4,3.4,62,0.00,,,0.00,VWS V14.01,2013-08-29 09:18:00,
2013-08-29 04:20:00,70.9,57.2,29.80,SE,135,3.4,3.4,62,0.00,,,0.00,VWS V14.01,2013-08-29 09:20:00,
2013-08-29 04:21:00,71.1,57.8,29.82,South,180,0.0,1.1,63,0.00,,,0.00,VWS V14.01,2013-08-29 09:21:00,
2013-08-29 04:22:00,70.9,57.2,29.80,NNE,22,3.4,3.4,62,0.00,,,0.00,VWS V14.01,2013-08-29 09:22:00,
2013-08-29 04:24:00,71.1,57.4,29.80,WNW,292,0.0,0.0,62,0.00,,,0.00,VWS V14.01,2013-08-29 09:24:00,
2013-08-29 04:26:00,71.2,58.0,29.82,SSE,158,2.7,2.7,63,0.00,,,0.00,VWS V14.01,2013-08-29 09:26:00,
2013-08-29 04:28:00,71.1,57.8,29.82,ESE,112,0.0,0.0,63,0.00,,,0.00,VWS V14.01,2013-08-29 09:28:00,
2013-08-29 04:30:00,71.1,57.8,29.82,ESE,112,0.0,1.3,63,0.00,,,0.00,VWS V14.01,2013-08-29 09:30:00,
2013-08-29 04:31:00,71.2,58.0,29.82,East,90,4.7,4.7,63,0.00,,,0.00,VWS V14.01,2013-08-29 09:31:00,
2013-08-29 04:32:00,71.1,57.8,29.82,West,270,6.7,6.7,63,0.00,,,0.00,VWS V14.01,2013-08-29 09:32:00,
2013-08-29 04:34:00,71.2,58.5,29.82,SSW,202,0.0,1.6,64,0.00,,,0.00,VWS V14.01,2013-08-29 09:34:00,
2013-08-29 04:36:00,71.4,58.2,29.82,NE,45,0.0,2.2,63,0.00,,,0.00,VWS V14.01,2013-08-29 09:36:00,
2013-08-29 04:38:00,71.2,58.5,29.82,SSE,158,0.0,1.1,64,0.00,,,0.00,VWS V14.01,2013-08-29 09:38:00,
2013-08-29 04:40:00,71.2,58.0,29.82,NW,315,0.0,0.0,63,0.00,,,0.00,VWS V14.01,2013-08-29 09:40:00,
2013-08-29 04:41:00,71.4,58.6,29.82,ESE,112,8.7,8.7,64,0.00,,,0.00,VWS V14.01,2013-08-29 09:41:00,
2013-08-29 04:42:00,71.2,58.0,29.82,East,90,2.7,2.7,63,0.00,,,0.00,VWS V14.01,2013-08-29 09:42:00,
2013-08-29 04:44:00,71.2,58.0,29.82,West,270,0.0,2.9,63,0.00,,,0.00,VWS V14.01,2013-08-29 09:44:00,
2013-08-29 04:46:00,71.4,58.6,29.82,East,90,3.4,3.4,64,0.00,,,0.00,VWS V14.01,2013-08-29 09:46:00,
2013-08-29 04:48:00,71.4,58.6,29.82,ESE,112,0.0,2.2,64,0.00,,,0.00,VWS V14.01,2013-08-29 09:48:00,
2013-08-29 04:50:00,71.4,58.2,29.82,WNW,292,0.0,0.0,63,0.00,,,0.00,VWS V14.01,2013-08-29 09:50:00,
2013-08-29 04:51:00,71.6,58.3,29.82,NE,45,2.7,2.7,63,0.00,,,0.00,VWS V14.01,2013-08-29 09:51:00,
2013-08-29 04:52:00,71.4,58.6,29.82,West,270,3.4,3.4,64,0.00,,,0.00,VWS V14.01,2013-08-29 09:52:00,
2013-08-29 04:54:00,71.4,58.6,29.82,SE,135,0.0,0.0,64,0.00,,,0.00,VWS V14.01,2013-08-29 09:54:00,
2013-08-29 04:56:00,71.6,58.3,29.82,NE,45,0.0,0.9,63,0.00,,,0.00,VWS V14.01,2013-08-29 09:56:00,
2013-08-29 04:58:00,71.4,58.6,29.82,WNW,292,0.0,0.0,64,0.00,,,0.00,VWS V14.01,2013-08-29 09:58:00,
2013-08-29 05:00:00,71.6,58.3,29.82,West,270,0.0,0.0,63,0.00,,,0.00,VWS V14.01,2013-08-29 10:00:00,
2013-08-29 05:01:00,71.6,58.3,29.82,WNW,292,0.0,2.7,63,0.00,,,0.00,VWS V14.01,2013-08-29 10:01:00,
2013-08-29 05:02:00,71.6,58.3,29.82,NNE,22,0.0,0.9,63,0.00,,,0.00,VWS V14.01,2013-08-29 10:02:00,
2013-08-29 05:04:00,71.6,58.3,29.82,WSW,248,6.0,6.0,63,0.00,,,0.00,VWS V14.01,2013-08-29 10:04:00,
2013-08-29 05:06:00,71.8,58.5,29.82,South,180,4.7,4.7,63,0.00,,,0.00,VWS V14.01,2013-08-29 10:06:00,
2013-08-29 05:08:00,71.6,58.3,29.82,NW,315,3.4,3.4,63,0.00,,,0.00,VWS V14.01,2013-08-29 10:08:00,
2013-08-29 05:10:00,71.8,59.0,29.82,West,270,4.7,4.7,64,0.00,,,0.00,VWS V14.01,2013-08-29 10:10:00,
2013-08-29 05:11:00,71.8,59.0,29.82,ESE,112,3.4,3.4,64,0.00,,,0.00,VWS V14.01,2013-08-29 10:11:00,
2013-08-29 05:12:00,71.8,58.5,29.82,North,0,0.0,1.3,63,0.00,,,0.00,VWS V14.01,2013-08-29 10:12:00,
2013-08-29 05:14:00,71.8,58.5,29.82,East,90,2.7,2.7,63,0.00,,,0.00,VWS V14.01,2013-08-29 10:14:00,
2013-08-29 05:16:00,71.8,58.5,29.82,NE,45,3.4,3.4,63,0.00,,,0.00,VWS V14.01,2013-08-29 10:16:00,
2013-08-29 05:18:00,71.8,59.0,29.82,South,180,0.0,2.0,64,0.00,,,0.00,VWS V14.01,2013-08-29 10:18:00,
2013-08-29 05:20:00,71.8,59.0,29.82,SE,135,3.4,3.4,64,0.00,,,0.00,VWS V14.01,2013-08-29 10:20:00,
2013-08-29 05:21:00,71.8,59.0,29.82,East,90,0.0,0.0,64,0.00,,,0.00,VWS V14.01,2013-08-29 10:21:00,
2013-08-29 05:22:00,71.8,59.0,29.82,East,90,0.0,1.6,64,0.00,,,0.00,VWS V14.01,2013-08-29 10:22:00,
2013-08-29 05:24:00,71.8,59.0,29.82,ESE,112,7.4,7.4,64,0.00,,,0.00,VWS V14.01,2013-08-29 10:24:00,
2013-08-29 05:26:00,71.8,59.0,29.82,SE,135,0.0,0.0,64,0.00,,,0.00,VWS V14.01,2013-08-29 10:26:00,
2013-08-29 05:28:00,71.8,59.0,29.82,SE,135,0.0,0.9,64,0.00,,,0.00,VWS V14.01,2013-08-29 10:28:00,
2013-08-29 05:30:00,71.8,59.0,29.82,East,90,0.0,0.0,64,0.00,,,0.00,VWS V14.01,2013-08-29 10:30:00,
2013-08-29 05:31:00,72.0,59.1,29.82,East,90,4.0,4.0,64,0.00,,,0.00,VWS V14.01,2013-08-29 10:31:00,
2013-08-29 05:32:00,71.8,59.0,29.82,East,90,0.0,0.0,64,0.00,,,0.00,VWS V14.01,2013-08-29 10:32:00,
2013-08-29 05:34:00,71.8,59.0,29.82,West,270,0.0,2.5,64,0.00,,,0.00,VWS V14.01,2013-08-29 10:34:00,
2013-08-29 05:36:00,72.0,59.1,29.82,SSE,158,0.0,1.3,64,0.00,,,0.00,VWS V14.01,2013-08-29 10:36:00,
2013-08-29 05:38:00,71.8,59.0,29.82,SSW,202,0.0,0.0,64,0.00,,,0.00,VWS V14.01,2013-08-29 10:38:00,
2013-08-29 05:40:00,72.0,59.1,29.82,SE,135,3.4,3.4,64,0.00,,,0.00,VWS V14.01,2013-08-29 10:40:00,
2013-08-29 05:41:00,72.0,59.1,29.82,SW,225,3.4,3.4,64,0.00,,,0.00,VWS V14.01,2013-08-29 10:41:00,
2013-08-29 05:42:00,72.0,59.1,29.82,SE,135,4.7,4.7,64,0.00,,,0.00,VWS V14.01,2013-08-29 10:42:00,
2013-08-29 05:44:00,72.0,59.1,29.82,SE,135,3.4,3.4,64,0.00,,,0.00,VWS V14.01,2013-08-29 10:44:00,
2013-08-29 05:46:00,72.0,59.1,29.82,ESE,112,0.0,1.3,64,0.00,,,0.00,VWS V14.01,2013-08-29 10:46:00,
2013-08-29 05:48:00,72.0,59.1,29.82,South,180,0.0,0.0,64,0.00,,,0.00,VWS V14.01,2013-08-29 10:48:00,
2013-08-29 05:50:00,72.1,59.7,29.82,SSW,202,3.4,3.4,65,0.00,,,0.00,VWS V14.01,2013-08-29 10:50:00,
2013-08-29 05:52:00,72.0,59.1,29.82,North,0,0.0,1.1,64,0.00,,,0.00,VWS V14.01,2013-08-29 10:52:00,
2013-08-29 05:54:00,72.0,59.1,29.82,NNW,338,3.4,3.4,64,0.00,,,0.00,VWS V14.01,2013-08-29 10:54:00,
2013-08-29 05:55:00,72.1,59.7,29.82,North,0,0.0,1.3,65,0.00,,,0.00,VWS V14.01,2013-08-29 10:55:00,
2013-08-29 05:56:00,72.0,59.1,29.82,ESE,112,0.0,0.9,64,0.00,,,0.00,VWS V14.01,2013-08-29 10:56:00,
2013-08-29 05:58:00,72.0,59.1,29.82,ESE,112,4.7,4.7,64,0.00,,,0.00,VWS V14.01,2013-08-29 10:58:00,
2013-08-29 06:00:00,72.3,59.9,29.82,WNW,292,0.0,0.0,65,0.00,,,0.00,VWS V14.01,2013-08-29 11:00:00,
2013-08-29 06:02:00,72.1,59.7,29.82,SSW,202,2.7,2.7,65,0.00,,,0.00,VWS V14.01,2013-08-29 11:02:00,
2013-08-29 06:04:00,72.1,59.7,29.82,West,270,0.0,0.0,65,0.00,,,0.00,VWS V14.01,2013-08-29 11:04:00,
2013-08-29 06:06:00,72.3,60.3,29.79,NW,315,0.0,0.0,66,0.00,,,0.00,VWS V14.01,2013-08-29 11:06:00,
2013-08-29 06:08:00,72.1,59.7,29.82,ENE,68,0.0,2.0,65,0.00,,,0.00,VWS V14.01,2013-08-29 11:08:00,
2013-08-29 06:10:00,72.1,59.7,29.82,WNW,292,0.0,0.9,65,0.00,,,0.00,VWS V14.01,2013-08-29 11:10:00,
2013-08-29 06:11:00,72.5,60.5,29.79,ENE,68,0.0,1.1,66,0.00,,,0.00,VWS V14.01,2013-08-29 11:11:00,
2013-08-29 06:12:00,72.3,59.9,29.82,North,0,0.0,1.6,65,0.00,,,0.00,VWS V14.01,2013-08-29 11:12:00,
2013-08-29 06:14:00,72.3,60.3,29.80,NW,315,0.0,0.9,66,0.00,,,0.00,VWS V14.01,2013-08-29 11:14:00,
2013-08-29 06:16:00,72.5,60.5,29.79,SSE,158,0.0,1.3,66,0.00,,,0.00,VWS V14.01,2013-08-29 11:16:00,
2013-08-29 06:18:00,72.3,60.3,29.80,NW,315,0.0,0.0,66,0.00,,,0.00,VWS V14.01,2013-08-29 11:18:00,
2013-08-29 06:20:00,72.5,60.5,29.80,North,0,0.0,0.0,66,0.00,,,0.00,VWS V14.01,2013-08-29 11:20:00,
2013-08-29 06:21:00,72.7,61.1,29.82,WNW,292,0.0,0.0,67,0.00,,,0.00,VWS V14.01,2013-08-29 11:21:00,
2013-08-29 06:22:00,72.5,60.5,29.80,East,90,0.0,1.1,66,0.00,,,0.00,VWS V14.01,2013-08-29 11:22:00,
2013-08-29 06:24:00,72.5,60.5,29.80,NNW,338,0.0,1.3,66,0.00,,,0.00,VWS V14.01,2013-08-29 11:24:00,
2013-08-29 06:25:00,72.9,61.7,29.82,NNW,338,0.0,0.0,68,0.00,,,0.00,VWS V14.01,2013-08-29 11:25:00,
2013-08-29 06:26:00,72.5,60.5,29.80,SSE,158,0.0,1.3,66,0.00,,,0.00,VWS V14.01,2013-08-29 11:26:00,
2013-08-29 06:28:00,72.7,61.1,29.82,SSE,158,0.0,0.0,67,0.00,,,0.00,VWS V14.01,2013-08-29 11:28:00,
2013-08-29 06:30:00,73.0,62.3,29.82,SE,135,0.0,1.3,69,0.00,,,0.00,VWS V14.01,2013-08-29 11:30:00,
2013-08-29 06:32:00,72.7,61.1,29.82,WSW,248,0.0,0.0,67,0.00,,,0.00,VWS V14.01,2013-08-29 11:32:00,
2013-08-29 06:34:00,72.9,61.7,29.82,West,270,0.0,0.0,68,0.00,,,0.00,VWS V14.01,2013-08-29 11:34:00,
2013-08-29 06:35:00,73.2,63.3,29.82,WSW,248,2.7,2.7,71,0.00,,,0.00,VWS V14.01,2013-08-29 11:35:00,
2013-08-29 06:36:00,72.9,61.7,29.82,NW,315,0.0,0.0,68,0.00,,,0.00,VWS V14.01,2013-08-29 11:36:00,
2013-08-29 06:38:00,72.9,61.7,29.82,NNW,338,3.4,3.4,68,0.00,,,0.00,VWS V14.01,2013-08-29 11:38:00,
2013-08-29 06:40:00,73.2,62.9,29.82,WSW,248,0.0,0.0,70,0.00,,,0.00,VWS V14.01,2013-08-29 11:40:00,
2013-08-29 06:42:00,73.2,62.9,29.82,SSW,202,2.7,2.7,70,0.00,,,0.00,VWS V14.01,2013-08-29 11:42:00,
2013-08-29 06:44:00,73.0,62.7,29.82,South,180,0.0,0.0,70,0.00,,,0.00,VWS V14.01,2013-08-29 11:44:00,
2013-08-29 06:45:00,73.4,62.6,29.82,SW,225,3.4,3.4,69,0.00,,,0.00,VWS V14.01,2013-08-29 11:45:00,
2013-08-29 06:46:00,73.2,63.3,29.82,WSW,248,0.0,0.9,71,0.00,,,0.00,VWS V14.01,2013-08-29 11:46:00,
2013-08-29 06:48:00,73.2,62.9,29.82,West,270,0.0,0.0,70,0.00,,,0.00,VWS V14.01,2013-08-29 11:48:00,
2013-08-29 06:50:00,73.4,63.0,29.82,ESE,112,2.7,2.7,70,0.00,,,0.00,VWS V14.01,2013-08-29 11:50:00,
2013-08-29 06:52:00,73.2,62.9,29.82,ESE,112,3.4,3.4,70,0.00,,,0.00,VWS V14.01,2013-08-29 11:52:00,
2013-08-29 06:54:00,73.2,62.9,29.82,SSE,158,0.0,0.0,70,0.00,,,0.00,VWS V14.01,2013-08-29 11:54:00,
2013-08-29 06:55:00,73.4,63.0,29.82,SW,225,0.0,1.6,70,0.00,,,0.00,VWS V14.01,2013-08-29 11:55:00,
2013-08-29 06:56:00,73.4,63.0,29.82,South,180,4.7,4.7,70,0.00,,,0.00,VWS V14.01,2013-08-29 11:56:00,
2013-08-29 06:58:00,73.4,63.0,29.82,SSE,158,3.4,3.4,70,0.00,,,0.00,VWS V14.01,2013-08-29 11:58:00,
2013-08-29 07:00:00,73.4,63.4,29.82,SSW,202,0.0,2.9,71,0.00,,,0.00,VWS V14.01,2013-08-29 12:00:00,
2013-08-29 07:02:00,73.4,63.0,29.82,ESE,112,0.0,0.9,70,0.00,,,0.00,VWS V14.01,2013-08-29 12:02:00,
2013-08-29 07:04:00,73.4,63.0,29.82,South,180,0.0,2.7,70,0.00,,,0.00,VWS V14.01,2013-08-29 12:04:00,
2013-08-29 07:05:00,73.6,64.4,29.79,SSW,202,4.0,4.0,73,0.00,,,0.00,VWS V14.01,2013-08-29 12:05:00,
2013-08-29 07:06:00,73.4,63.0,29.82,West,270,0.0,1.6,70,0.00,,,0.00,VWS V14.01,2013-08-29 12:06:00,
2013-08-29 07:08:00,73.4,63.4,29.82,South,180,3.4,3.4,71,0.00,,,0.00,VWS V14.01,2013-08-29 12:08:00,
2013-08-29 07:10:00,73.6,64.8,29.79,SW,225,2.7,2.7,74,0.00,,,0.00,VWS V14.01,2013-08-29 12:10:00,
2013-08-29 07:12:00,73.4,63.8,29.82,SSW,202,2.7,2.7,72,0.00,,,0.00,VWS V14.01,2013-08-29 12:12:00,
2013-08-29 07:14:00,73.4,63.8,29.80,South,180,0.0,0.0,72,0.00,,,0.00,VWS V14.01,2013-08-29 12:14:00,
2013-08-29 07:15:00,73.6,64.8,29.79,South,180,0.0,0.0,74,0.00,,,0.00,VWS V14.01,2013-08-29 12:15:00,
2013-08-29 07:16:00,73.6,64.4,29.80,WSW,248,3.4,3.4,73,0.00,,,0.00,VWS V14.01,2013-08-29 12:16:00,
2013-08-29 07:18:00,73.6,64.8,29.80,South,180,2.7,2.9,74,0.00,,,0.00,VWS V14.01,2013-08-29 12:18:00,
2013-08-29 07:20:00,73.6,64.8,29.85,SSE,158,0.0,0.0,74,0.00,,,0.00,VWS V14.01,2013-08-29 12:20:00,
2013-08-29 07:22:00,73.6,64.8,29.80,SW,225,2.7,2.7,74,0.00,,,0.00,VWS V14.01,2013-08-29 12:22:00,
2013-08-29 07:24:00,73.6,65.2,29.80,SSW,202,0.0,2.0,75,0.00,,,0.00,VWS V14.01,2013-08-29 12:24:00,
2013-08-29 07:25:00,73.8,65.3,29.85,South,180,0.0,0.0,75,0.00,,,0.00,VWS V14.01,2013-08-29 12:25:00,
2013-08-29 07:26:00,73.6,64.8,29.80,South,180,0.0,0.0,74,0.00,,,0.00,VWS V14.01,2013-08-29 12:26:00,
2013-08-29 07:28:00,73.6,64.8,29.85,SW,225,0.0,0.0,74,0.00,,,0.00,VWS V14.01,2013-08-29 12:28:00,
2013-08-29 07:30:00,73.9,65.5,29.85,SSW,202,0.0,1.6,75,0.00,,,0.00,VWS V14.01,2013-08-29 12:30:00,
2013-08-29 07:32:00,73.8,65.0,29.85,SSE,158,0.0,1.1,74,0.00,,,0.00,VWS V14.01,2013-08-29 12:32:00,
2013-08-29 07:34:00,73.8,65.0,29.85,West,270,3.4,3.4,74,0.00,,,0.00,VWS V14.01,2013-08-29 12:34:00,
2013-08-29 07:35:00,74.1,66.1,29.82,WSW,248,6.7,6.7,76,0.00,,,0.00,VWS V14.01,2013-08-29 12:35:00,
2013-08-29 07:36:00,73.8,65.3,29.85,South,180,4.0,4.0,75,0.00,,,0.00,VWS V14.01,2013-08-29 12:36:00,
2013-08-29 07:38:00,73.8,65.3,29.85,South,180,0.0,0.0,75,0.00,,,0.00,VWS V14.01,2013-08-29 12:38:00,
2013-08-29 07:40:00,74.3,66.6,29.82,SW,225,0.0,2.5,77,0.00,,,0.00,VWS V14.01,2013-08-29 12:40:00,
2013-08-29 07:42:00,73.9,65.5,29.85,SSW,202,0.0,0.0,75,0.00,,,0.00,VWS V14.01,2013-08-29 12:42:00,
2013-08-29 07:44:00,73.9,65.9,29.82,SSW,202,4.0,4.0,76,0.00,,,0.00,VWS V14.01,2013-08-29 12:44:00,
2013-08-29 07:45:00,74.5,66.8,29.82,SE,135,3.4,3.4,77,0.00,,,0.00,VWS V14.01,2013-08-29 12:45:00,
2013-08-29 07:46:00,74.1,66.1,29.82,West,270,4.7,4.7,76,0.00,,,0.00,VWS V14.01,2013-08-29 12:46:00,
2013-08-29 07:48:00,74.1,66.1,29.82,WNW,292,0.0,2.0,76,0.00,,,0.00,VWS V14.01,2013-08-29 12:48:00,
2013-08-29 07:50:00,74.7,67.0,29.85,SSE,158,0.0,0.0,77,0.00,,,0.00,VWS V14.01,2013-08-29 12:50:00,
2013-08-29 07:52:00,74.3,66.6,29.82,SSE,158,0.0,0.9,77,0.00,,,0.00,VWS V14.01,2013-08-29 12:52:00,
2013-08-29 07:54:00,74.3,66.6,29.82,South,180,0.0,0.0,77,0.00,,,0.00,VWS V14.01,2013-08-29 12:54:00,
2013-08-29 07:55:00,74.8,67.2,29.85,SW,225,0.0,3.4,77,0.00,,,0.00,VWS V14.01,2013-08-29 12:55:00,
2013-08-29 07:56:00,74.5,66.8,29.82,SSE,158,0.0,1.1,77,0.00,,,0.00,VWS V14.01,2013-08-29 12:56:00,
2013-08-29 07:58:00,74.5,66.8,29.85,SW,225,0.0,0.0,77,0.00,,,0.00,VWS V14.01,2013-08-29 12:58:00,
2013-08-29 08:00:00,75.0,67.7,29.85,SSE,158,0.0,1.6,78,0.00,,,0.00,VWS V14.01,2013-08-29 13:00:00,
2013-08-29 08:02:00,74.7,67.0,29.85,SW,225,0.0,2.2,77,0.00,,,0.00,VWS V14.01,2013-08-29 13:02:00,
2013-08-29 08:04:00,74.7,67.0,29.85,SSW,202,0.0,1.1,77,0.00,,,0.00,VWS V14.01,2013-08-29 13:04:00,
2013-08-29 08:05:00,75.2,67.9,29.82,SSE,158,0.0,1.6,78,0.00,,,0.00,VWS V14.01,2013-08-29 13:05:00,
2013-08-29 08:06:00,74.8,67.2,29.85,SW,225,0.0,0.0,77,0.00,,,0.00,VWS V14.01,2013-08-29 13:06:00,
2013-08-29 08:08:00,75.0,67.7,29.85,SSE,158,7.4,7.4,78,0.00,,,0.00,VWS V14.01,2013-08-29 13:08:00,
2013-08-29 08:10:00,75.4,68.1,29.82,SW,225,3.4,3.8,78,0.00,,,0.00,VWS V14.01,2013-08-29 13:10:00,
2013-08-29 08:12:00,75.0,67.7,29.85,South,180,7.4,7.4,78,0.00,,,0.00,VWS V14.01,2013-08-29 13:12:00,
2013-08-29 08:14:00,75.0,67.7,29.82,South,180,2.7,2.7,78,0.00,,,0.00,VWS V14.01,2013-08-29 13:14:00,
2013-08-29 08:15:00,75.6,67.8,29.82,South,180,6.0,6.0,77,0.00,,,0.00,VWS V14.01,2013-08-29 13:15:00,
2013-08-29 08:16:00,75.2,67.9,29.82,SSE,158,0.0,1.6,78,0.00,,,0.00,VWS V14.01,2013-08-29 13:16:00,
2013-08-29 08:18:00,75.2,67.9,29.82,SW,225,0.0,0.0,78,0.00,,,0.00,VWS V14.01,2013-08-29 13:18:00,
2013-08-29 08:20:00,75.7,68.0,29.82,SW,225,7.4,7.4,77,0.00,,,0.00,VWS V14.01,2013-08-29 13:20:00,
2013-08-29 08:22:00,75.6,68.2,29.82,SSW,202,0.0,1.3,78,0.00,,,0.00,VWS V14.01,2013-08-29 13:22:00,
2013-08-29 08:24:00,75.6,68.2,29.82,SSE,158,8.7,8.7,78,0.00,,,0.00,VWS V14.01,2013-08-29 13:24:00,
2013-08-29 08:25:00,75.9,67.8,29.82,SSW,202,6.7,6.7,76,0.00,,,0.00,VWS V14.01,2013-08-29 13:25:00,
2013-08-29 08:26:00,75.6,67.8,29.82,SSW,202,3.4,3.4,77,0.00,,,0.00,VWS V14.01,2013-08-29 13:26:00,
2013-08-29 08:28:00,75.7,68.0,29.82,SSW,202,3.4,3.6,77,0.00,,,0.00,VWS V14.01,2013-08-29 13:28:00,
2013-08-29 08:30:00,76.1,68.0,29.82,SSW,202,0.0,0.0,76,0.00,,,0.00,VWS V14.01,2013-08-29 13:30:00,
2013-08-29 08:32:00,75.7,68.0,29.82,SSW,202,8.7,8.7,77,0.00,,,0.00,VWS V14.01,2013-08-29 13:32:00,
2013-08-29 08:34:00,75.7,68.0,29.82,West,270,10.1,10.1,77,0.00,,,0.00,VWS V14.01,2013-08-29 13:34:00,
2013-08-29 08:35:00,76.6,67.7,29.82,SSW,202,6.0,6.0,74,0.00,,,0.00,VWS V14.01,2013-08-29 13:35:00,
2013-08-29 08:36:00,75.9,67.8,29.82,South,180,4.0,4.0,76,0.00,,,0.00,VWS V14.01,2013-08-29 13:36:00,
2013-08-29 08:38:00,75.9,67.8,29.82,SW,225,0.0,3.8,76,0.00,,,0.00,VWS V14.01,2013-08-29 13:38:00,
2013-08-29 08:40:00,77.0,66.9,29.82,South,180,9.4,9.4,71,0.00,,,0.00,VWS V14.01,2013-08-29 13:40:00,
2013-08-29 08:42:00,76.3,67.8,29.82,West,270,0.0,0.0,75,0.00,,,0.00,VWS V14.01,2013-08-29 13:42:00,
2013-08-29 08:44:00,76.5,68.0,29.82,WSW,248,0.0,0.9,75,0.00,,,0.00,VWS V14.01,2013-08-29 13:44:00,
2013-08-29 08:45:00,77.2,65.8,29.82,West,270,4.0,5.4,68,0.00,,,0.00,VWS V14.01,2013-08-29 13:45:00,
2013-08-29 08:46:00,76.6,67.7,29.82,SSE,158,6.0,6.0,74,0.00,,,0.00,VWS V14.01,2013-08-29 13:46:00,
2013-08-29 08:48:00,76.6,67.3,29.82,South,180,4.7,4.7,73,0.00,,,0.00,VWS V14.01,2013-08-29 13:48:00,
2013-08-29 08:50:00,77.5,65.7,29.82,WSW,248,8.1,8.1,67,0.00,,,0.00,VWS V14.01,2013-08-29 13:50:00,
2013-08-29 08:52:00,77.0,66.9,29.82,South,180,6.7,6.7,71,0.00,,,0.00,VWS V14.01,2013-08-29 13:52:00,
2013-08-29 08:54:00,77.2,66.2,29.82,West,270,8.1,8.1,69,0.00,,,0.00,VWS V14.01,2013-08-29 13:54:00,
2013-08-29 08:55:00,77.7,64.6,29.82,SSE,158,10.7,10.7,64,0.00,,,0.00,VWS V14.01,2013-08-29 13:55:00,
2013-08-29 08:56:00,77.2,65.8,29.82,SSE,158,9.4,9.4,68,0.00,,,0.00,VWS V14.01,2013-08-29 13:56:00,
2013-08-29 08:58:00,77.4,66.0,29.82,South,180,0.0,2.7,68,0.00,,,0.00,VWS V14.01,2013-08-29 13:58:00,
2013-08-29 09:00:00,78.1,64.5,29.82,SSW,202,0.0,0.0,63,0.00,,,0.00,VWS V14.01,2013-08-29 14:00:00,
2013-08-29 09:02:00,77.5,65.3,29.82,WSW,248,4.7,4.7,66,0.00,,,0.00,VWS V14.01,2013-08-29 14:02:00,
2013-08-29 09:04:00,77.7,65.0,29.82,South,180,12.8,12.8,65,0.00,,,0.00,VWS V14.01,2013-08-29 14:04:00,
2013-08-29 09:05:00,78.8,64.2,29.82,SSW,202,4.0,4.0,61,0.00,,,0.00,VWS V14.01,2013-08-29 14:05:00,
2013-08-29 09:06:00,77.7,64.6,29.82,SSW,202,8.7,8.7,64,0.00,,,0.00,VWS V14.01,2013-08-29 14:06:00,
2013-08-29 09:08:00,77.9,64.8,29.82,ENE,68,8.1,8.1,64,0.00,,,0.00,VWS V14.01,2013-08-29 14:08:00,
2013-08-29 09:10:00,79.3,63.8,29.82,SSW,202,0.0,1.1,59,0.00,,,0.00,VWS V14.01,2013-08-29 14:10:00,
2013-08-29 09:12:00,78.3,64.6,29.82,West,270,0.0,1.3,63,0.00,,,0.00,VWS V14.01,2013-08-29 14:12:00,
2013-08-29 09:14:00,78.6,65.0,29.82,WSW,248,0.0,1.3,63,0.00,,,0.00,VWS V14.01,2013-08-29 14:14:00,
2013-08-29 09:15:00,79.7,62.6,29.82,WSW,248,11.4,11.4,56,0.00,,,0.00,VWS V14.01,2013-08-29 14:15:00,
2013-08-29 09:16:00,78.8,64.2,29.82,SSW,202,4.0,4.0,61,0.00,,,0.00,VWS V14.01,2013-08-29 14:16:00,
2013-08-29 09:18:00,79.0,64.4,29.82,West,270,8.1,8.1,61,0.00,,,0.00,VWS V14.01,2013-08-29 14:18:00,
2013-08-29 09:20:00,80.1,61.4,29.82,WSW,248,3.4,3.4,53,0.00,,,0.00,VWS V14.01,2013-08-29 14:20:00,
2013-08-29 09:22:00,79.3,63.3,29.82,WNW,292,3.4,3.4,58,0.00,,,0.00,VWS V14.01,2013-08-29 14:22:00,
2013-08-29 09:24:00,79.3,62.8,29.82,SSW,202,0.0,3.4,57,0.00,,,0.00,VWS V14.01,2013-08-29 14:24:00,
2013-08-29 09:25:00,80.1,60.3,29.82,South,180,6.0,6.0,51,0.00,,,0.00,VWS V14.01,2013-08-29 14:25:00,
2013-08-29 09:26:00,79.7,62.6,29.82,WSW,248,10.1,10.1,56,0.00,,,0.00,VWS V14.01,2013-08-29 14:26:00,
2013-08-29 09:28:00,79.9,61.2,29.82,West,270,0.0,2.5,53,0.00,,,0.00,VWS V14.01,2013-08-29 14:28:00,
2013-08-29 09:30:00,81.0,59.4,29.82,NW,315,3.4,3.4,48,0.00,,,0.00,VWS V14.01,2013-08-29 14:30:00,
2013-08-29 09:32:00,79.9,60.7,29.82,South,180,3.4,3.4,52,0.00,,,0.00,VWS V14.01,2013-08-29 14:32:00,
2013-08-29 09:34:00,80.1,60.3,29.82,South,180,2.7,2.7,51,0.00,,,0.00,VWS V14.01,2013-08-29 14:34:00,
2013-08-29 09:35:00,82.2,59.4,29.82,SW,225,4.0,4.0,46,0.00,,,0.00,VWS V14.01,2013-08-29 14:35:00,
2013-08-29 09:36:00,80.2,60.5,29.82,West,270,2.7,2.7,51,0.00,,,0.00,VWS V14.01,2013-08-29 14:36:00,
2013-08-29 09:38:00,80.4,60.1,29.82,WSW,248,4.0,4.0,50,0.00,,,0.00,VWS V14.01,2013-08-29 14:38:00,
2013-08-29 09:40:00,82.4,57.7,29.82,SSW,202,10.7,10.7,43,0.00,,,0.00,VWS V14.01,2013-08-29 14:40:00,
2013-08-29 09:42:00,81.5,59.9,29.82,SSE,158,2.7,2.9,48,0.00,,,0.00,VWS V14.01,2013-08-29 14:42:00,
2013-08-29 09:44:00,81.9,60.3,29.82,NE,45,4.7,4.7,48,0.00,,,0.00,VWS V14.01,2013-08-29 14:44:00,
2013-08-29 09:45:00,82.0,57.4,29.82,South,180,6.0,6.0,43,0.00,,,0.00,VWS V14.01,2013-08-29 14:45:00,
2013-08-29 09:46:00,82.2,59.4,29.82,South,180,4.7,4.7,46,0.00,,,0.00,VWS V14.01,2013-08-29 14:46:00,
2013-08-29 09:48:00,82.4,59.0,29.82,SSW,202,4.0,4.0,45,0.00,,,0.00,VWS V14.01,2013-08-29 14:48:00,
2013-08-29 09:50:00,81.9,57.2,29.79,WSW,248,0.0,0.0,43,0.00,,,0.00,VWS V14.01,2013-08-29 14:50:00,
2013-08-29 09:52:00,82.2,57.5,29.82,SSW,202,4.0,4.0,43,0.00,,,0.00,VWS V14.01,2013-08-29 14:52:00,
2013-08-29 09:54:00,82.2,57.5,29.82,SW,225,9.4,9.4,43,0.00,,,0.00,VWS V14.01,2013-08-29 14:54:00,
2013-08-29 09:55:00,81.9,57.2,29.79,West,270,4.7,4.7,43,0.00,,,0.00,VWS V14.01,2013-08-29 14:55:00,
2013-08-29 09:56:00,82.0,57.4,29.82,South,180,4.0,4.0,43,0.00,,,0.00,VWS V14.01,2013-08-29 14:56:00,
2013-08-29 09:58:00,81.9,56.5,29.80,SSW,202,6.0,6.0,42,0.00,,,0.00,VWS V14.01,2013-08-29 14:58:00,
2013-08-29 10:00:00,82.8,57.3,29.79,South,180,2.7,2.7,42,0.00,,,0.00,VWS V14.01,2013-08-29 15:00:00,
2013-08-29 10:02:00,81.9,57.2,29.80,ENE,68,6.7,6.7,43,0.00,,,0.00,VWS V14.01,2013-08-29 15:02:00,
2013-08-29 10:04:00,81.9,57.2,29.80,SE,135,3.4,3.4,43,0.00,,,0.00,VWS V14.01,2013-08-29 15:04:00,
2013-08-29 10:05:00,83.5,56.6,29.79,ESE,112,4.0,4.0,40,0.00,,,0.00,VWS V14.01,2013-08-29 15:05:00,
2013-08-29 10:06:00,82.0,57.4,29.80,SW,225,4.7,4.7,43,0.00,,,0.00,VWS V14.01,2013-08-29 15:06:00,
2013-08-29 10:08:00,82.2,57.5,29.80,South,180,0.0,0.9,43,0.00,,,0.00,VWS V14.01,2013-08-29 15:08:00,
2013-08-29 10:10:00,84.2,56.6,29.79,NNW,338,3.4,3.4,39,0.00,,,0.00,VWS V14.01,2013-08-29 15:10:00,
2013-08-29 10:12:00,82.9,57.5,29.80,NNE,22,4.0,4.0,42,0.00,,,0.00,VWS V14.01,2013-08-29 15:12:00,
2013-08-29 10:14:00,83.5,57.3,29.80,NNE,22,6.0,6.0,41,0.00,,,0.00,VWS V14.01,2013-08-29 15:14:00,
2013-08-29 10:15:00,84.9,56.5,29.79,ESE,112,4.0,4.0,38,0.00,,,0.00,VWS V14.01,2013-08-29 15:15:00,
2013-08-29 10:16:00,83.5,56.6,29.80,NNE,22,4.0,4.0,40,0.00,,,0.00,VWS V14.01,2013-08-29 15:16:00,
2013-08-29 10:18:00,83.8,57.0,29.80,ENE,68,6.0,6.0,40,0.00,,,0.00,VWS V14.01,2013-08-29 15:18:00,
2013-08-29 10:20:00,85.8,55.0,29.79,SSW,202,7.4,7.4,35,0.00,,,0.00,VWS V14.01,2013-08-29 15:20:00,
2013-08-29 10:22:00,84.4,56.7,29.80,NE,45,6.7,6.7,39,0.00,,,0.00,VWS V14.01,2013-08-29 15:22:00,
2013-08-29 10:24:00,84.7,56.3,29.80,SSE,158,6.7,6.7,38,0.00,,,0.00,VWS V14.01,2013-08-29 15:24:00,
2013-08-29 10:25:00,86.7,55.0,29.79,SSE,158,8.1,8.1,34,0.00,,,0.00,VWS V14.01,2013-08-29 15:25:00,
2013-08-29 10:26:00,84.9,56.5,29.80,WSW,248,4.0,4.0,38,0.00,,,0.00,VWS V14.01,2013-08-29 15:26:00,
2013-08-29 10:28:00,85.3,56.1,29.80,South,180,0.0,2.2,37,0.00,,,0.00,VWS V14.01,2013-08-29 15:28:00,
2013-08-29 10:30:00,86.0,53.6,29.79,WSW,248,2.7,2.7,33,0.00,,,0.00,VWS V14.01,2013-08-29 15:30:00,
2013-08-29 10:32:00,86.0,55.2,29.80,ENE,68,3.4,3.4,35,0.00,,,0.00,VWS V14.01,2013-08-29 15:32:00,
2013-08-29 10:34:00,86.5,54.9,29.80,East,90,6.0,6.0,34,0.00,,,0.00,VWS V14.01,2013-08-29 15:34:00,
2013-08-29 10:35:00,85.8,53.4,29.79,South,180,4.7,4.7,33,0.00,,,0.00,VWS V14.01,2013-08-29 15:35:00,
2013-08-29 10:36:00,86.7,54.2,29.80,SSE,158,7.4,7.4,33,0.00,,,0.00,VWS V14.01,2013-08-29 15:36:00,
2013-08-29 10:38:00,86.5,54.0,29.80,NE,45,4.7,4.7,33,0.00,,,0.00,VWS V14.01,2013-08-29 15:38:00,
2013-08-29 10:40:00,87.4,54.0,29.79,SW,225,4.7,4.7,32,0.00,,,0.00,VWS V14.01,2013-08-29 15:40:00,
2013-08-29 10:42:00,85.8,53.4,29.80,SE,135,6.0,6.0,33,0.00,,,0.00,VWS V14.01,2013-08-29 15:42:00,
2013-08-29 10:44:00,85.6,53.3,29.80,SSW,202,6.0,6.0,33,0.00,,,0.00,VWS V14.01,2013-08-29 15:44:00,
2013-08-29 10:45:00,88.9,53.5,29.79,SE,135,11.4,11.4,30,0.00,,,0.00,VWS V14.01,2013-08-29 15:45:00,
2013-08-29 10:46:00,85.8,53.4,29.80,SSW,202,0.0,2.7,33,0.00,,,0.00,VWS V14.01,2013-08-29 15:46:00,
2013-08-29 10:48:00,86.5,53.2,29.80,ENE,68,4.7,4.7,32,0.00,,,0.00,VWS V14.01,2013-08-29 15:48:00,
2013-08-29 10:50:00,87.1,53.7,29.80,NNE,22,4.7,4.7,32,0.00,,,0.00,VWS V14.01,2013-08-29 15:50:00,
2013-08-29 10:51:00,89.6,52.2,29.79,South,180,4.0,4.0,28,0.00,,,0.00,VWS V14.01,2013-08-29 15:51:00,
2013-08-29 10:52:00,88.0,53.6,29.80,SSE,158,4.0,4.0,31,0.00,,,0.00,VWS V14.01,2013-08-29 15:52:00,
2013-08-29 10:54:00,88.7,53.3,29.80,ESE,112,7.4,7.4,30,0.00,,,0.00,VWS V14.01,2013-08-29 15:54:00,
2013-08-29 10:56:00,90.0,52.5,29.79,NE,45,11.4,11.4,28,0.00,,,0.00,VWS V14.01,2013-08-29 15:56:00,
2013-08-29 10:58:00,89.2,53.8,29.80,WNW,292,3.4,3.4,30,0.00,,,0.00,VWS V14.01,2013-08-29 15:58:00,
2013-08-29 11:00:00,89.6,53.2,29.80,NW,315,6.0,6.0,29,0.00,,,0.00,VWS V14.01,2013-08-29 16:00:00,
2013-08-29 11:01:00,90.9,53.3,29.79,WSW,248,7.4,7.4,28,0.00,,,0.00,VWS V14.01,2013-08-29 16:01:00,
2013-08-29 11:02:00,89.4,53.0,29.80,ENE,68,4.7,4.7,29,0.00,,,0.00,VWS V14.01,2013-08-29 16:02:00,
2013-08-29 11:04:00,89.6,52.2,29.80,SSW,202,4.7,4.7,28,0.00,,,0.00,VWS V14.01,2013-08-29 16:04:00,
2013-08-29 11:06:00,91.2,51.6,29.79,SW,225,7.4,7.4,26,0.00,,,0.00,VWS V14.01,2013-08-29 16:06:00,
2013-08-29 11:08:00,90.3,52.8,29.80,NW,315,3.4,3.4,28,0.00,,,0.00,VWS V14.01,2013-08-29 16:08:00,
2013-08-29 11:10:00,90.9,53.3,29.80,ESE,112,4.0,4.0,28,0.00,,,0.00,VWS V14.01,2013-08-29 16:10:00,
2013-08-29 11:11:00,89.8,50.4,29.79,South,180,7.4,7.4,26,0.00,,,0.00,VWS V14.01,2013-08-29 16:11:00,
2013-08-29 11:12:00,91.6,52.9,29.80,SSW,202,6.7,6.7,27,0.00,,,0.00,VWS V14.01,2013-08-29 16:12:00,
2013-08-29 11:14:00,92.3,53.5,29.80,SW,225,6.0,6.0,27,0.00,,,0.00,VWS V14.01,2013-08-29 16:14:00,
2013-08-29 11:16:00,88.9,51.6,29.79,West,270,4.0,4.0,28,0.00,,,0.00,VWS V14.01,2013-08-29 16:16:00,
2013-08-29 11:18:00,91.2,51.6,29.80,NW,315,0.0,2.5,26,0.00,,,0.00,VWS V14.01,2013-08-29 16:18:00,
2013-08-29 11:20:00,90.1,50.7,29.80,SSE,158,7.4,7.4,26,0.00,,,0.00,VWS V14.01,2013-08-29 16:20:00,
2013-08-29 11:21:00,89.8,51.4,29.79,SSW,202,8.1,8.1,27,0.00,,,0.00,VWS V14.01,2013-08-29 16:21:00,
2013-08-29 11:22:00,89.4,52.1,29.80,South,180,4.0,4.0,28,0.00,,,0.00,VWS V14.01,2013-08-29 16:22:00,
2013-08-29 11:24:00,89.1,51.8,29.80,West,270,3.4,3.4,28,0.00,,,0.00,VWS V14.01,2013-08-29 16:24:00,
2013-08-29 11:26:00,89.8,51.4,29.79,NE,45,0.0,1.6,27,0.00,,,0.00,VWS V14.01,2013-08-29 16:26:00,
2013-08-29 11:28:00,89.1,51.8,29.80,WSW,248,4.7,4.7,28,0.00,,,0.00,VWS V14.01,2013-08-29 16:28:00,
2013-08-29 11:30:00,89.1,51.8,29.80,WSW,248,6.0,6.0,28,0.00,,,0.00,VWS V14.01,2013-08-29 16:30:00,
2013-08-29 11:31:00,89.2,51.9,29.79,WSW,248,4.0,4.0,28,0.00,,,0.00,VWS V14.01,2013-08-29 16:31:00,
2013-08-29 11:32:00,89.6,51.2,29.80,SSE,158,2.7,3.4,27,0.00,,,0.00,VWS V14.01,2013-08-29 16:32:00,
2013-08-29 11:34:00,90.0,51.5,29.80,East,90,3.4,3.4,27,0.00,,,0.00,VWS V14.01,2013-08-29 16:34:00,
2013-08-29 11:36:00,88.9,51.6,29.79,SSW,202,10.7,10.7,28,0.00,,,0.00,VWS V14.01,2013-08-29 16:36:00,
2013-08-29 11:38:00,89.8,51.4,29.80,SW,225,4.0,4.0,27,0.00,,,0.00,VWS V14.01,2013-08-29 16:38:00,
2013-08-29 11:40:00,89.6,51.2,29.80,West,270,8.7,8.7,27,0.00,,,0.00,VWS V14.01,2013-08-29 16:40:00,
2013-08-29 11:41:00,89.6,51.2,29.79,SW,225,6.0,6.0,27,0.00,,,0.00,VWS V14.01,2013-08-29 16:41:00,
2013-08-29 11:42:00,89.1,51.8,29.80,SW,225,2.7,2.7,28,0.00,,,0.00,VWS V14.01,2013-08-29 16:42:00,
2013-08-29 11:44:00,88.9,51.6,29.80,North,0,4.7,4.7,28,0.00,,,0.00,VWS V14.01,2013-08-29 16:44:00,
2013-08-29 11:46:00,90.1,50.7,29.79,South,180,3.4,3.4,26,0.00,,,0.00,VWS V14.01,2013-08-29 16:46:00,
2013-08-29 11:48:00,89.1,51.8,29.80,SSE,158,4.0,4.0,28,0.00,,,0.00,VWS V14.01,2013-08-29 16:48:00,
2013-08-29 11:50:00,89.4,52.1,29.80,South,180,3.4,3.4,28,0.00,,,0.00,VWS V14.01,2013-08-29 16:50:00,
2013-08-29 11:51:00,90.7,50.1,29.79,South,180,4.0,4.0,25,0.00,,,0.00,VWS V14.01,2013-08-29 16:51:00,
2013-08-29 11:52:00,89.6,51.2,29.80,SW,225,8.1,8.1,27,0.00,,,0.00,VWS V14.01,2013-08-29 16:52:00,
2013-08-29 11:54:00,90.1,50.7,29.80,SW,225,3.4,4.0,26,0.00,,,0.00,VWS V14.01,2013-08-29 16:54:00,
2013-08-29 11:56:00,90.3,49.8,29.79,SSW,202,14.8,14.8,25,0.00,,,0.00,VWS V14.01,2013-08-29 16:56:00,
2013-08-29 11:58:00,90.3,50.8,29.80,SSW,202,4.0,4.0,26,0.00,,,0.00,VWS V14.01,2013-08-29 16:58:00,
2013-08-29 12:00:00,90.7,51.1,29.80,SSW,202,7.4,7.4,26,0.00,,,0.00,VWS V14.01,2013-08-29 17:00:00,
2013-08-29 12:01:00,92.1,50.2,29.79,SSE,158,2.7,2.7,24,0.00,,,0.00,VWS V14.01,2013-08-29 17:01:00,
2013-08-29 12:02:00,90.7,50.1,29.80,South,180,6.0,6.0,25,0.00,,,0.00,VWS V14.01,2013-08-29 17:02:00,
2013-08-29 12:04:00,90.7,50.1,29.80,SE,135,4.0,4.0,25,0.00,,,0.00,VWS V14.01,2013-08-29 17:04:00,
2013-08-29 12:06:00,93.6,49.0,29.79,SSW,202,7.4,7.4,22,0.00,,,0.00,VWS V14.01,2013-08-29 17:06:00,
2013-08-29 12:08:00,90.3,49.8,29.80,SSE,158,4.7,4.7,25,0.00,,,0.00,VWS V14.01,2013-08-29 17:08:00,
2013-08-29 12:10:00,91.2,50.5,29.80,SE,135,4.7,4.7,25,0.00,,,0.00,VWS V14.01,2013-08-29 17:10:00,
2013-08-29 12:11:00,93.6,49.0,29.79,NW,315,0.0,2.2,22,0.00,,,0.00,VWS V14.01,2013-08-29 17:11:00,
2013-08-29 12:12:00,92.3,50.3,29.80,WNW,292,0.0,1.3,24,0.00,,,0.00,VWS V14.01,2013-08-29 17:12:00,
2013-08-29 12:14:00,93.4,48.9,29.80,WNW,292,3.4,3.4,22,0.00,,,0.00,VWS V14.01,2013-08-29 17:14:00,
2013-08-29 12:16:00,95.4,45.2,29.79,SW,225,11.4,11.4,18,0.00,,,0.00,VWS V14.01,2013-08-29 17:16:00,
2013-08-29 12:18:00,94.5,49.8,29.80,NW,315,0.0,2.0,22,0.00,,,0.00,VWS V14.01,2013-08-29 17:18:00,
2013-08-29 12:20:00,93.7,49.2,29.80,WSW,248,4.0,4.0,22,0.00,,,0.00,VWS V14.01,2013-08-29 17:20:00,
2013-08-29 12:21:00,97.9,45.7,29.79,SSE,158,6.0,6.0,17,0.00,,,0.00,VWS V14.01,2013-08-29 17:21:00,
2013-08-29 12:22:00,93.9,49.3,29.80,NW,315,3.4,3.4,22,0.00,,,0.00,VWS V14.01,2013-08-29 17:22:00,
2013-08-29 12:24:00,94.8,47.5,29.80,SSW,202,18.8,18.8,20,0.00,,,0.00,VWS V14.01,2013-08-29 17:24:00,
2013-08-29 12:26:00,96.4,44.6,29.79,SE,135,7.4,7.4,17,0.00,,,0.00,VWS V14.01,2013-08-29 17:26:00,
2013-08-29 12:28:00,96.1,45.8,29.80,SW,225,9.4,9.4,18,0.00,,,0.00,VWS V14.01,2013-08-29 17:28:00,
2013-08-29 12:30:00,97.3,45.3,29.80,SE,135,6.0,6.9,17,0.00,,,0.00,VWS V14.01,2013-08-29 17:30:00,
2013-08-29 12:31:00,98.1,45.9,29.79,SSW,202,9.4,9.4,17,0.00,,,0.00,VWS V14.01,2013-08-29 17:31:00,
2013-08-29 12:32:00,98.4,46.2,29.80,WNW,292,10.7,10.7,17,0.00,,,0.00,VWS V14.01,2013-08-29 17:32:00,
2013-08-29 12:34:00,97.7,45.6,29.80,SSW,202,4.7,4.7,17,0.00,,,0.00,VWS V14.01,2013-08-29 17:34:00,
2013-08-29 12:36:00,96.1,44.3,29.79,WSW,248,4.7,4.7,17,0.00,,,0.00,VWS V14.01,2013-08-29 17:36:00,
2013-08-29 12:38:00,97.5,45.4,29.80,South,180,4.0,4.0,17,0.00,,,0.00,VWS V14.01,2013-08-29 17:38:00,
2013-08-29 12:40:00,97.9,45.7,29.80,South,180,7.4,7.4,17,0.00,,,0.00,VWS V14.01,2013-08-29 17:40:00,
2013-08-29 12:41:00,93.7,42.4,29.79,WSW,248,14.1,14.1,17,0.00,,,0.00,VWS V14.01,2013-08-29 17:41:00,
2013-08-29 12:42:00,98.1,45.9,29.80,ESE,112,8.1,8.1,17,0.00,,,0.00,VWS V14.01,2013-08-29 17:42:00,
2013-08-29 12:44:00,96.6,44.7,29.80,NNW,338,7.4,7.4,17,0.00,,,0.00,VWS V14.01,2013-08-29 17:44:00,
2013-08-29 12:46:00,92.3,42.7,29.79,SW,225,19.5,19.5,18,0.00,,,0.00,VWS V14.01,2013-08-29 17:46:00,
2013-08-29 12:48:00,95.2,43.5,29.80,SSE,158,7.4,7.4,17,0.00,,,0.00,VWS V14.01,2013-08-29 17:48:00,
2013-08-29 12:50:00,94.3,42.8,29.80,WSW,248,10.7,10.7,17,0.00,,,0.00,VWS V14.01,2013-08-29 17:50:00,
2013-08-29 12:51:00,91.9,42.4,29.76,South,180,8.1,8.1,18,0.00,,,0.00,VWS V14.01,2013-08-29 17:51:00,
2013-08-29 12:52:00,93.4,42.1,29.80,South,180,14.1,14.1,17,0.00,,,0.00,VWS V14.01,2013-08-29 17:52:00,
2013-08-29 12:54:00,92.8,43.2,29.80,South,180,10.1,10.1,18,0.00,,,0.00,VWS V14.01,2013-08-29 17:54:00,
2013-08-29 12:56:00,91.0,43.1,29.76,South,180,6.0,6.0,19,0.00,,,0.00,VWS V14.01,2013-08-29 17:56:00,
2013-08-29 12:58:00,91.8,42.3,29.76,SW,225,11.4,11.4,18,0.00,,,0.00,VWS V14.01,2013-08-29 17:58:00,
2013-08-29 13:00:00,91.9,42.4,29.76,South,180,16.1,16.1,18,0.00,,,0.00,VWS V14.01,2013-08-29 18:00:00,
2013-08-29 13:01:00,90.7,42.8,29.76,SSE,158,6.0,6.0,19,0.00,,,0.00,VWS V14.01,2013-08-29 18:01:00,
2013-08-29 13:02:00,91.8,42.3,29.76,SSW,202,14.8,14.8,18,0.00,,,0.00,VWS V14.01,2013-08-29 18:02:00,
2013-08-29 13:04:00,91.4,42.0,29.76,SSW,202,9.4,9.4,18,0.00,,,0.00,VWS V14.01,2013-08-29 18:04:00,
2013-08-29 13:06:00,91.8,43.7,29.76,SW,225,8.7,8.7,19,0.00,,,0.00,VWS V14.01,2013-08-29 18:06:00,
2013-08-29 13:08:00,90.7,42.8,29.76,South,180,10.1,10.1,19,0.00,,,0.00,VWS V14.01,2013-08-29 18:08:00,
2013-08-29 13:10:00,90.7,42.8,29.76,West,270,10.1,10.1,19,0.00,,,0.00,VWS V14.01,2013-08-29 18:10:00,
2013-08-29 13:11:00,91.2,43.2,29.76,SSW,202,17.5,17.5,19,0.00,,,0.00,VWS V14.01,2013-08-29 18:11:00,
2013-08-29 13:12:00,90.9,43.0,29.76,SSW,202,9.4,9.4,19,0.00,,,0.00,VWS V14.01,2013-08-29 18:12:00,
2013-08-29 13:14:00,91.4,42.0,29.76,SW,225,6.7,6.7,18,0.00,,,0.00,VWS V14.01,2013-08-29 18:14:00,
2013-08-29 13:16:00,91.0,43.1,29.76,SSW,202,6.7,7.2,19,0.00,,,0.00,VWS V14.01,2013-08-29 18:16:00,
2013-08-29 13:18:00,91.8,43.7,29.76,SW,225,10.7,10.7,19,0.00,,,0.00,VWS V14.01,2013-08-29 18:18:00,
2013-08-29 13:20:00,91.4,42.0,29.76,SSW,202,7.4,7.8,18,0.00,,,0.00,VWS V14.01,2013-08-29 18:20:00,
2013-08-29 13:21:00,91.4,42.0,29.76,South,180,12.1,12.1,18,0.00,,,0.00,VWS V14.01,2013-08-29 18:21:00,
2013-08-29 13:22:00,91.0,43.1,29.76,SSW,202,10.7,10.7,19,0.00,,,0.00,VWS V14.01,2013-08-29 18:22:00,
2013-08-29 13:24:00,91.0,43.1,29.76,SSW,202,3.4,3.6,19,0.00,,,0.00,VWS V14.01,2013-08-29 18:24:00,
2013-08-29 13:26:00,91.0,43.1,29.76,SSW,202,10.1,10.1,19,0.00,,,0.00,VWS V14.01,2013-08-29 18:26:00,
2013-08-29 13:28:00,91.6,42.1,29.76,SSW,202,4.7,4.7,18,0.00,,,0.00,VWS V14.01,2013-08-29 18:28:00,
2013-08-29 13:30:00,91.4,42.0,29.76,South,180,10.7,10.7,18,0.00,,,0.00,VWS V14.01,2013-08-29 18:30:00,
2013-08-29 13:31:00,91.2,43.2,29.76,SSW,202,10.7,10.7,19,0.00,,,0.00,VWS V14.01,2013-08-29 18:31:00,
2013-08-29 13:32:00,91.2,43.2,29.76,West,270,8.7,8.7,19,0.00,,,0.00,VWS V14.01,2013-08-29 18:32:00,
2013-08-29 13:34:00,91.2,43.2,29.76,South,180,12.8,12.8,19,0.00,,,0.00,VWS V14.01,2013-08-29 18:34:00,
2013-08-29 13:36:00,90.9,43.0,29.74,SSW,202,9.4,9.4,19,0.00,,,0.00,VWS V14.01,2013-08-29 18:36:00,
2013-08-29 13:38:00,91.0,43.1,29.76,SW,225,8.1,8.1,19,0.00,,,0.00,VWS V14.01,2013-08-29 18:38:00,
2013-08-29 13:40:00,91.4,43.4,29.76,SSW,202,21.5,21.5,19,0.00,,,0.00,VWS V14.01,2013-08-29 18:40:00,
2013-08-29 13:41:00,90.9,43.0,29.74,SSW,202,6.0,6.0,19,0.00,,,0.00,VWS V14.01,2013-08-29 18:41:00,
2013-08-29 13:42:00,91.2,43.2,29.76,SW,225,9.4,9.4,19,0.00,,,0.00,VWS V14.01,2013-08-29 18:42:00,
2013-08-29 13:44:00,91.2,43.2,29.74,SSW,202,14.8,14.8,19,0.00,,,0.00,VWS V14.01,2013-08-29 18:44:00,
2013-08-29 13:46:00,90.7,42.8,29.74,SE,135,6.0,6.0,19,0.00,,,0.00,VWS V14.01,2013-08-29 18:46:00,
2013-08-29 13:48:00,90.7,42.8,29.74,South,180,4.7,4.9,19,0.00,,,0.00,VWS V14.01,2013-08-29 18:48:00,
2013-08-29 13:50:00,90.9,43.0,29.74,SSW,202,4.7,4.7,19,0.00,,,0.00,VWS V14.01,2013-08-29 18:50:00,
2013-08-29 13:51:00,91.0,43.1,29.76,NW,315,8.1,8.1,19,0.00,,,0.00,VWS V14.01,2013-08-29 18:51:00,
2013-08-29 13:52:00,91.2,43.2,29.74,SSW,202,6.0,6.0,19,0.00,,,0.00,VWS V14.01,2013-08-29 18:52:00,
2013-08-29 13:54:00,90.9,43.0,29.74,SSW,202,7.4,7.4,19,0.00,,,0.00,VWS V14.01,2013-08-29 18:54:00,
2013-08-29 13:56:00,90.5,42.7,29.76,SW,225,11.4,11.4,19,0.00,,,0.00,VWS V14.01,2013-08-29 18:56:00,
2013-08-29 13:58:00,90.9,43.0,29.76,South,180,4.7,4.7,19,0.00,,,0.00,VWS V14.01,2013-08-29 18:58:00,
2013-08-29 14:00:00,91.0,43.1,29.76,SSW,202,4.7,4.7,19,0.00,,,0.00,VWS V14.01,2013-08-29 19:00:00,
2013-08-29 14:01:00,89.4,43.1,29.76,SSW,202,8.1,8.1,20,0.00,,,0.00,VWS V14.01,2013-08-29 19:01:00,
2013-08-29 14:02:00,90.9,43.0,29.76,SW,225,8.7,8.7,19,0.00,,,0.00,VWS V14.01,2013-08-29 19:02:00,
2013-08-29 14:04:00,90.7,42.8,29.76,WSW,248,4.0,4.0,19,0.00,,,0.00,VWS V14.01,2013-08-29 19:04:00,
2013-08-29 14:06:00,89.2,43.0,29.76,WSW,248,12.8,12.8,20,0.00,,,0.00,VWS V14.01,2013-08-29 19:06:00,
2013-08-29 14:08:00,90.0,43.5,29.76,SW,225,9.4,9.4,20,0.00,,,0.00,VWS V14.01,2013-08-29 19:08:00,
2013-08-29 14:10:00,89.6,41.9,29.76,WSW,248,10.7,10.7,19,0.00,,,0.00,VWS V14.01,2013-08-29 19:10:00,
2013-08-29 14:11:00,88.7,42.5,29.76,South,180,6.7,6.7,20,0.00,,,0.00,VWS V14.01,2013-08-29 19:11:00,
2013-08-29 14:12:00,89.4,43.1,29.76,SSE,158,11.4,11.4,20,0.00,,,0.00,VWS V14.01,2013-08-29 19:12:00,
2013-08-29 14:14:00,89.2,43.0,29.76,West,270,8.7,8.7,20,0.00,,,0.00,VWS V14.01,2013-08-29 19:14:00,
2013-08-29 14:16:00,89.2,43.0,29.76,SSE,158,16.8,16.8,20,0.00,,,0.00,VWS V14.01,2013-08-29 19:16:00,
2013-08-29 14:18:00,88.9,42.7,29.76,SW,225,8.1,8.1,20,0.00,,,0.00,VWS V14.01,2013-08-29 19:18:00,
2013-08-29 14:20:00,88.7,42.5,29.76,SW,225,10.1,10.1,20,0.00,,,0.00,VWS V14.01,2013-08-29 19:20:00,
2013-08-29 14:21:00,90.3,42.5,29.74,SSE,158,8.1,8.1,19,0.00,,,0.00,VWS V14.01,2013-08-29 19:21:00,
2013-08-29 14:22:00,88.7,42.5,29.76,SW,225,6.0,6.0,20,0.00,,,0.00,VWS V14.01,2013-08-29 19:22:00,
2013-08-29 14:24:00,88.9,42.7,29.76,SW,225,14.8,14.8,20,0.00,,,0.00,VWS V14.01,2013-08-29 19:24:00,
2013-08-29 14:26:00,90.3,42.5,29.74,WSW,248,6.0,6.0,19,0.00,,,0.00,VWS V14.01,2013-08-29 19:26:00,
2013-08-29 14:28:00,89.6,41.9,29.74,SSW,202,12.8,12.8,19,0.00,,,0.00,VWS V14.01,2013-08-29 19:28:00,
2013-08-29 14:30:00,90.1,42.4,29.74,South,180,8.7,8.7,19,0.00,,,0.00,VWS V14.01,2013-08-29 19:30:00,
2013-08-29 14:31:00,90.0,42.2,29.74,SSW,202,8.7,8.7,19,0.00,,,0.00,VWS V14.01,2013-08-29 19:31:00,
2013-08-29 14:32:00,90.5,42.7,29.74,South,180,9.4,9.4,19,0.00,,,0.00,VWS V14.01,2013-08-29 19:32:00,
2013-08-29 14:34:00,90.3,42.5,29.74,South,180,8.7,8.7,19,0.00,,,0.00,VWS V14.01,2013-08-29 19:34:00,
2013-08-29 14:36:00,89.4,41.8,29.71,SSE,158,4.7,4.7,19,0.00,,,0.00,VWS V14.01,2013-08-29 19:36:00,
2013-08-29 14:38:00,90.1,42.4,29.74,SE,135,7.4,7.4,19,0.00,,,0.00,VWS V14.01,2013-08-29 19:38:00,
2013-08-29 14:40:00,90.0,42.2,29.74,SW,225,9.4,9.4,19,0.00,,,0.00,VWS V14.01,2013-08-29 19:40:00,
2013-08-29 14:41:00,90.5,42.7,29.71,SE,135,12.8,12.8,19,0.00,,,0.00,VWS V14.01,2013-08-29 19:41:00,
2013-08-29 14:42:00,89.8,42.1,29.74,NW,315,10.1,10.1,19,0.00,,,0.00,VWS V14.01,2013-08-29 19:42:00,
2013-08-29 14:44:00,89.8,42.1,29.71,SSE,158,4.0,4.0,19,0.00,,,0.00,VWS V14.01,2013-08-29 19:44:00,
2013-08-29 14:46:00,93.6,43.7,29.71,SW,225,9.4,9.4,18,0.00,,,0.00,VWS V14.01,2013-08-29 19:46:00,
2013-08-29 14:48:00,89.6,41.9,29.71,NNW,338,9.4,9.4,19,0.00,,,0.00,VWS V14.01,2013-08-29 19:48:00,
2013-08-29 14:50:00,90.0,42.2,29.71,SSW,202,10.7,10.7,19,0.00,,,0.00,VWS V14.01,2013-08-29 19:50:00,
2013-08-29 14:51:00,92.1,42.6,29.68,SW,225,6.7,6.7,18,0.00,,,0.00,VWS V14.01,2013-08-29 19:51:00,
2013-08-29 14:52:00,90.9,43.0,29.71,South,180,7.4,7.4,19,0.00,,,0.00,VWS V14.01,2013-08-29 19:52:00,
2013-08-29 14:54:00,92.3,42.7,29.71,WNW,292,12.1,12.1,18,0.00,,,0.00,VWS V14.01,2013-08-29 19:54:00,
2013-08-29 14:56:00,91.2,41.8,29.68,SSW,202,14.1,14.1,18,0.00,,,0.00,VWS V14.01,2013-08-29 19:56:00,
2013-08-29 14:58:00,93.2,42.0,29.68,NNW,338,8.1,8.1,17,0.00,,,0.00,VWS V14.01,2013-08-29 19:58:00,
2013-08-29 15:00:00,92.3,42.7,29.68,NNW,338,8.1,8.1,18,0.00,,,0.00,VWS V14.01,2013-08-29 20:00:00,
2013-08-29 15:01:00,91.6,42.1,29.68,SSE,158,7.4,7.4,18,0.00,,,0.00,VWS V14.01,2013-08-29 20:01:00,
2013-08-29 15:02:00,91.8,42.3,29.68,West,270,8.7,8.7,18,0.00,,,0.00,VWS V14.01,2013-08-29 20:02:00,
2013-08-29 15:04:00,91.2,41.8,29.68,ESE,112,10.1,10.1,18,0.00,,,0.00,VWS V14.01,2013-08-29 20:04:00,
2013-08-29 15:06:00,94.3,42.8,29.71,South,180,8.1,8.1,17,0.00,,,0.00,VWS V14.01,2013-08-29 20:06:00,
2013-08-29 15:08:00,91.4,42.0,29.68,SSE,158,11.4,11.4,18,0.00,,,0.00,VWS V14.01,2013-08-29 20:08:00,
2013-08-29 15:10:00,91.4,42.0,29.68,NW,315,8.1,8.1,18,0.00,,,0.00,VWS V14.01,2013-08-29 20:10:00,
2013-08-29 15:11:00,95.7,44.0,29.71,SSW,202,10.1,10.1,17,0.00,,,0.00,VWS V14.01,2013-08-29 20:11:00,
2013-08-29 15:12:00,92.1,42.6,29.71,SSW,202,4.7,4.7,18,0.00,,,0.00,VWS V14.01,2013-08-29 20:12:00,
2013-08-29 15:14:00,93.4,42.1,29.71,SSW,202,11.4,11.4,17,0.00,,,0.00,VWS V14.01,2013-08-29 20:14:00,
2013-08-29 15:16:00,94.6,43.1,29.71,SSE,158,17.5,17.5,17,0.00,,,0.00,VWS V14.01,2013-08-29 20:16:00,
2013-08-29 15:18:00,95.0,43.4,29.71,NW,315,6.0,6.0,17,0.00,,,0.00,VWS V14.01,2013-08-29 20:18:00,
2013-08-29 15:20:00,95.5,43.8,29.71,South,180,6.0,6.0,17,0.00,,,0.00,VWS V14.01,2013-08-29 20:20:00,
2013-08-29 15:21:00,95.2,42.0,29.71,WSW,248,18.8,18.8,16,0.00,,,0.00,VWS V14.01,2013-08-29 20:21:00,
2013-08-29 15:22:00,95.4,43.7,29.71,SSW,202,7.4,7.4,17,0.00,,,0.00,VWS V14.01,2013-08-29 20:22:00,
2013-08-29 15:24:00,95.2,43.5,29.71,SW,225,8.1,8.1,17,0.00,,,0.00,VWS V14.01,2013-08-29 20:24:00,
2013-08-29 15:26:00,95.2,43.5,29.71,SSW,202,8.1,8.1,17,0.00,,,0.00,VWS V14.01,2013-08-29 20:26:00,
2013-08-29 15:28:00,94.8,43.3,29.71,North,0,12.8,12.8,17,0.00,,,0.00,VWS V14.01,2013-08-29 20:28:00,
2013-08-29 15:30:00,95.2,43.5,29.71,WSW,248,16.1,16.1,17,0.00,,,0.00,VWS V14.01,2013-08-29 20:30:00,
2013-08-29 15:31:00,96.8,43.3,29.71,SSW,202,7.4,7.4,16,0.00,,,0.00,VWS V14.01,2013-08-29 20:31:00,
2013-08-29 15:32:00,94.8,43.3,29.71,NW,315,7.4,7.4,17,0.00,,,0.00,VWS V14.01,2013-08-29 20:32:00,
2013-08-29 15:34:00,95.2,43.5,29.71,ENE,68,8.1,8.1,17,0.00,,,0.00,VWS V14.01,2013-08-29 20:34:00,
2013-08-29 15:35:00,96.4,43.0,29.71,SSW,202,7.4,7.4,16,0.00,,,0.00,VWS V14.01,2013-08-29 20:35:00,
2013-08-29 15:36:00,95.2,43.5,29.71,SSW,202,8.1,8.1,17,0.00,,,0.00,VWS V14.01,2013-08-29 20:36:00,
2013-08-29 15:38:00,94.8,43.3,29.71,SSE,158,4.0,4.0,17,0.00,,,0.00,VWS V14.01,2013-08-29 20:38:00,
2013-08-29 15:40:00,96.4,43.0,29.71,South,180,14.8,14.8,16,0.00,,,0.00,VWS V14.01,2013-08-29 20:40:00,
2013-08-29 15:42:00,97.3,43.7,29.71,NW,315,7.4,7.4,16,0.00,,,0.00,VWS V14.01,2013-08-29 20:42:00,
2013-08-29 15:44:00,96.4,43.0,29.71,South,180,10.1,10.1,16,0.00,,,0.00,VWS V14.01,2013-08-29 20:44:00,
2013-08-29 15:45:00,95.0,43.4,29.71,SW,225,24.2,24.2,17,0.00,,,0.00,VWS V14.01,2013-08-29 20:45:00,
2013-08-29 15:46:00,96.4,43.0,29.71,SSW,202,7.4,7.4,16,0.00,,,0.00,VWS V14.01,2013-08-29 20:46:00,
2013-08-29 15:48:00,96.4,43.0,29.71,SW,225,8.1,8.1,16,0.00,,,0.00,VWS V14.01,2013-08-29 20:48:00,
2013-08-29 15:50:00,94.8,43.3,29.71,SE,135,9.4,9.4,17,0.00,,,0.00,VWS V14.01,2013-08-29 20:50:00,
2013-08-29 15:52:00,96.4,43.0,29.71,SSE,158,11.4,11.4,16,0.00,,,0.00,VWS V14.01,2013-08-29 20:52:00,
2013-08-29 15:54:00,95.7,42.4,29.71,SE,135,10.7,10.7,16,0.00,,,0.00,VWS V14.01,2013-08-29 20:54:00,
2013-08-29 15:55:00,95.9,44.1,29.71,WSW,248,31.6,31.6,17,0.00,,,0.00,VWS V14.01,2013-08-29 20:55:00,
2013-08-29 15:56:00,95.0,43.4,29.71,SW,225,9.4,9.4,17,0.00,,,0.00,VWS V14.01,2013-08-29 20:56:00,
2013-08-29 15:58:00,94.8,43.3,29.71,SW,225,12.1,12.1,17,0.00,,,0.00,VWS V14.01,2013-08-29 20:58:00,
2013-08-29 16:00:00,95.7,44.0,29.71,SW,225,7.4,7.4,17,0.00,,,0.00,VWS V14.01,2013-08-29 21:00:00,
2013-08-29 16:02:00,95.0,43.4,29.71,South,180,8.1,8.1,17,0.00,,,0.00,VWS V14.01,2013-08-29 21:02:00,
2013-08-29 16:04:00,95.4,43.7,29.71,SSW,202,4.7,4.7,17,0.00,,,0.00,VWS V14.01,2013-08-29 21:04:00,
2013-08-29 16:05:00,96.3,44.4,29.71,SSW,202,16.8,16.8,17,0.00,,,0.00,VWS V14.01,2013-08-29 21:05:00,
2013-08-29 16:06:00,95.9,44.1,29.71,WSW,248,31.6,31.6,17,0.00,,,0.00,VWS V14.01,2013-08-29 21:06:00,
2013-08-29 16:08:00,95.4,43.7,29.71,SW,225,6.0,6.0,17,0.00,,,0.00,VWS V14.01,2013-08-29 21:08:00,
2013-08-29 16:10:00,95.7,42.4,29.71,SSE,158,9.4,9.4,16,0.00,,,0.00,VWS V14.01,2013-08-29 21:10:00,
2013-08-29 16:12:00,95.7,44.0,29.71,SSE,158,6.0,6.0,17,0.00,,,0.00,VWS V14.01,2013-08-29 21:12:00,
2013-08-29 16:14:00,96.3,44.4,29.71,SW,225,8.7,8.7,17,0.00,,,0.00,VWS V14.01,2013-08-29 21:14:00,
2013-08-29 16:15:00,95.9,42.5,29.71,WSW,248,8.7,8.7,16,0.00,,,0.00,VWS V14.01,2013-08-29 21:15:00,
2013-08-29 16:16:00,96.3,44.4,29.71,SSW,202,16.8,16.8,17,0.00,,,0.00,VWS V14.01,2013-08-29 21:16:00,
2013-08-29 16:18:00,95.9,42.5,29.71,WSW,248,22.2,22.2,16,0.00,,,0.00,VWS V14.01,2013-08-29 21:18:00,
2013-08-29 16:20:00,95.5,42.2,29.71,WSW,248,16.1,16.1,16,0.00,,,0.00,VWS V14.01,2013-08-29 21:20:00,
2013-08-29 16:22:00,95.7,42.4,29.71,West,270,9.4,9.4,16,0.00,,,0.00,VWS V14.01,2013-08-29 21:22:00,
2013-08-29 16:24:00,95.9,44.1,29.71,WSW,248,11.4,11.4,17,0.00,,,0.00,VWS V14.01,2013-08-29 21:24:00,
2013-08-29 16:25:00,95.2,42.0,29.71,WNW,292,9.4,9.4,16,0.00,,,0.00,VWS V14.01,2013-08-29 21:25:00,
2013-08-29 16:26:00,95.9,42.5,29.71,WSW,248,8.7,8.7,16,0.00,,,0.00,VWS V14.01,2013-08-29 21:26:00,
2013-08-29 16:28:00,95.7,42.4,29.71,WSW,248,21.5,21.5,16,0.00,,,0.00,VWS V14.01,2013-08-29 21:28:00,
2013-08-29 16:30:00,95.2,42.0,29.71,SW,225,10.1,10.1,16,0.00,,,0.00,VWS V14.01,2013-08-29 21:30:00,
2013-08-29 16:32:00,95.4,42.1,29.71,South,180,10.7,10.7,16,0.00,,,0.00,VWS V14.01,2013-08-29 21:32:00,
2013-08-29 16:34:00,95.0,41.8,29.71,SSW,202,7.4,10.1,16,0.00,,,0.00,VWS V14.01,2013-08-29 21:34:00,
2013-08-29 16:35:00,95.2,42.0,29.74,South,180,6.7,10.5,16,0.00,,,0.00,VWS V14.01,2013-08-29 21:35:00,
2013-08-29 16:36:00,95.2,42.0,29.71,WNW,292,9.4,9.4,16,0.00,,,0.00,VWS V14.01,2013-08-29 21:36:00,
2013-08-29 16:38:00,95.0,41.8,29.71,SW,225,28.2,28.2,16,0.00,,,0.00,VWS V14.01,2013-08-29 21:38:00,
2013-08-29 16:40:00,94.6,43.1,29.74,West,270,8.7,8.7,17,0.00,,,0.00,VWS V14.01,2013-08-29 21:40:00,
2013-08-29 16:42:00,95.2,42.0,29.71,SW,225,9.4,9.4,16,0.00,,,0.00,VWS V14.01,2013-08-29 21:42:00,
2013-08-29 16:44:00,95.2,42.0,29.74,SW,225,9.4,9.4,16,0.00,,,0.00,VWS V14.01,2013-08-29 21:44:00,
2013-08-29 16:45:00,93.6,42.2,29.74,SSW,202,8.7,8.7,17,0.00,,,0.00,VWS V14.01,2013-08-29 21:45:00,
2013-08-29 16:46:00,95.2,42.0,29.74,WNW,292,4.0,10.5,16,0.00,,,0.00,VWS V14.01,2013-08-29 21:46:00,
2013-08-29 16:48:00,95.5,42.2,29.74,WSW,248,9.4,9.4,16,0.00,,,0.00,VWS V14.01,2013-08-29 21:48:00,
2013-08-29 16:50:00,94.3,42.8,29.74,SSW,202,17.5,17.5,17,0.00,,,0.00,VWS V14.01,2013-08-29 21:50:00,
2013-08-29 16:52:00,93.9,42.5,29.74,South,180,12.1,12.1,17,0.00,,,0.00,VWS V14.01,2013-08-29 21:52:00,
2013-08-29 16:54:00,93.4,42.1,29.74,SW,225,8.7,8.7,17,0.00,,,0.00,VWS V14.01,2013-08-29 21:54:00,
2013-08-29 16:55:00,92.8,41.7,29.74,SSW,202,22.2,22.2,17,0.00,,,0.00,VWS V14.01,2013-08-29 21:55:00,
2013-08-29 16:56:00,93.6,42.2,29.74,SSE,158,6.7,6.7,17,0.00,,,0.00,VWS V14.01,2013-08-29 21:56:00,
2013-08-29 16:58:00,93.6,42.2,29.74,South,180,6.0,6.0,17,0.00,,,0.00,VWS V14.01,2013-08-29 21:58:00,
2013-08-29 17:00:00,93.4,42.1,29.74,SSW,202,14.8,14.8,17,0.00,,,0.00,VWS V14.01,2013-08-29 22:00:00,
2013-08-29 17:02:00,93.9,42.5,29.74,WSW,248,10.7,10.7,17,0.00,,,0.00,VWS V14.01,2013-08-29 22:02:00,
2013-08-29 17:04:00,93.4,42.1,29.74,SW,225,16.1,16.1,17,0.00,,,0.00,VWS V14.01,2013-08-29 22:04:00,
2013-08-29 17:05:00,91.9,40.9,29.74,SW,225,6.0,6.0,17,0.00,,,0.00,VWS V14.01,2013-08-29 22:05:00,
2013-08-29 17:06:00,92.8,41.7,29.74,South,180,26.2,26.2,17,0.00,,,0.00,VWS V14.01,2013-08-29 22:06:00,
2013-08-29 17:08:00,92.8,41.7,29.74,South,180,18.8,18.8,17,0.00,,,0.00,VWS V14.01,2013-08-29 22:08:00,
2013-08-29 17:10:00,92.3,41.2,29.74,South,180,4.7,6.0,17,0.00,,,0.00,VWS V14.01,2013-08-29 22:10:00,
2013-08-29 17:12:00,93.0,41.8,29.74,South,180,11.4,11.4,17,0.00,,,0.00,VWS V14.01,2013-08-29 22:12:00,
2013-08-29 17:14:00,92.5,41.4,29.74,SSW,202,8.7,8.7,17,0.00,,,0.00,VWS V14.01,2013-08-29 22:14:00,
2013-08-29 17:15:00,92.1,41.1,29.74,South,180,18.1,18.1,17,0.00,,,0.00,VWS V14.01,2013-08-29 22:15:00,
2013-08-29 17:16:00,91.9,40.9,29.74,SW,225,6.0,6.0,17,0.00,,,0.00,VWS V14.01,2013-08-29 22:16:00,
2013-08-29 17:18:00,92.5,41.4,29.74,WSW,248,7.4,7.4,17,0.00,,,0.00,VWS V14.01,2013-08-29 22:18:00,
2013-08-29 17:20:00,92.8,41.7,29.74,SSW,202,10.1,10.1,17,0.00,,,0.00,VWS V14.01,2013-08-29 22:20:00,
2013-08-29 17:22:00,92.1,41.1,29.74,NNW,338,6.0,6.0,17,0.00,,,0.00,VWS V14.01,2013-08-29 22:22:00,
2013-08-29 17:24:00,92.3,41.2,29.74,South,180,8.7,8.7,17,0.00,,,0.00,VWS V14.01,2013-08-29 22:24:00,
2013-08-29 17:25:00,93.4,42.1,29.74,SW,225,17.5,17.5,17,0.00,,,0.00,VWS V14.01,2013-08-29 22:25:00,
2013-08-29 17:26:00,92.3,41.2,29.74,South,180,18.1,18.1,17,0.00,,,0.00,VWS V14.01,2013-08-29 22:26:00,
2013-08-29 17:28:00,92.1,41.1,29.74,SSW,202,11.4,11.4,17,0.00,,,0.00,VWS V14.01,2013-08-29 22:28:00,
2013-08-29 17:30:00,93.4,42.1,29.74,SSW,202,10.1,10.1,17,0.00,,,0.00,VWS V14.01,2013-08-29 22:30:00,
2013-08-29 17:32:00,93.0,41.8,29.74,South,180,12.8,12.8,17,0.00,,,0.00,VWS V14.01,2013-08-29 22:32:00,
2013-08-29 17:34:00,93.2,42.0,29.74,NW,315,7.4,7.4,17,0.00,,,0.00,VWS V14.01,2013-08-29 22:34:00,
2013-08-29 17:35:00,93.0,41.8,29.71,SSW,202,7.4,7.4,17,0.00,,,0.00,VWS V14.01,2013-08-29 22:35:00,
2013-08-29 17:36:00,93.4,42.1,29.74,SSE,158,10.7,10.7,17,0.00,,,0.00,VWS V14.01,2013-08-29 22:36:00,
2013-08-29 17:38:00,93.4,42.1,29.74,SSW,202,9.4,9.4,17,0.00,,,0.00,VWS V14.01,2013-08-29 22:38:00,
2013-08-29 17:40:00,93.2,42.0,29.71,SSW,202,10.7,10.7,17,0.00,,,0.00,VWS V14.01,2013-08-29 22:40:00,
2013-08-29 17:42:00,93.4,42.1,29.74,South,180,22.8,22.8,17,0.00,,,0.00,VWS V14.01,2013-08-29 22:42:00,
2013-08-29 17:44:00,93.0,41.8,29.71,North,0,6.0,6.3,17,0.00,,,0.00,VWS V14.01,2013-08-29 22:44:00,
2013-08-29 17:45:00,92.3,41.2,29.71,SW,225,4.0,8.7,17,0.00,,,0.00,VWS V14.01,2013-08-29 22:45:00,
2013-08-29 17:46:00,93.0,41.8,29.71,SSW,202,6.0,6.0,17,0.00,,,0.00,VWS V14.01,2013-08-29 22:46:00,
2013-08-29 17:48:00,93.2,42.0,29.71,SSE,158,22.2,22.2,17,0.00,,,0.00,VWS V14.01,2013-08-29 22:48:00,
2013-08-29 17:50:00,91.9,40.9,29.68,West,270,10.1,10.1,17,0.00,,,0.00,VWS V14.01,2013-08-29 22:50:00,
2013-08-29 17:52:00,93.2,42.0,29.71,SW,225,10.1,10.1,17,0.00,,,0.00,VWS V14.01,2013-08-29 22:52:00,
2013-08-29 17:54:00,92.8,41.7,29.71,South,180,16.8,16.8,17,0.00,,,0.00,VWS V14.01,2013-08-29 22:54:00,
2013-08-29 17:55:00,91.0,41.7,29.68,South,180,18.8,18.8,18,0.00,,,0.00,VWS V14.01,2013-08-29 22:55:00,
2013-08-29 17:56:00,92.1,41.1,29.71,WSW,248,2.7,8.7,17,0.00,,,0.00,VWS V14.01,2013-08-29 22:56:00,
2013-08-29 17:58:00,91.9,40.9,29.68,South,180,2.7,4.3,17,0.00,,,0.00,VWS V14.01,2013-08-29 22:58:00,
2013-08-29 18:00:00,90.5,41.3,29.68,NNW,338,8.1,8.1,18,0.00,,,0.00,VWS V14.01,2013-08-29 23:00:00,
2013-08-29 18:02:00,91.8,40.8,29.68,SSW,202,10.1,10.1,17,0.00,,,0.00,VWS V14.01,2013-08-29 23:02:00,
2013-08-29 18:04:00,91.2,41.8,29.68,South,180,18.8,18.8,18,0.00,,,0.00,VWS V14.01,2013-08-29 23:04:00,
2013-08-29 18:05:00,90.3,41.1,29.68,SW,225,7.4,7.4,18,0.00,,,0.00,VWS V14.01,2013-08-29 23:05:00,
2013-08-29 18:06:00,91.0,41.7,29.68,SSW,202,31.6,31.6,18,0.00,,,0.00,VWS V14.01,2013-08-29 23:06:00,
2013-08-29 18:08:00,90.7,41.4,29.68,South,180,16.1,16.1,18,0.00,,,0.00,VWS V14.01,2013-08-29 23:08:00,
2013-08-29 18:10:00,90.1,41.0,29.68,SSW,202,10.7,10.7,18,0.00,,,0.00,VWS V14.01,2013-08-29 23:10:00,
2013-08-29 18:12:00,90.5,41.3,29.68,SSW,202,22.2,22.2,18,0.00,,,0.00,VWS V14.01,2013-08-29 23:12:00,
2013-08-29 18:14:00,90.3,41.1,29.68,WNW,292,10.1,10.1,18,0.00,,,0.00,VWS V14.01,2013-08-29 23:14:00,
2013-08-29 18:15:00,89.8,40.7,29.68,SE,135,10.7,10.7,18,0.00,,,0.00,VWS V14.01,2013-08-29 23:15:00,
2013-08-29 18:16:00,90.3,41.1,29.68,SE,135,12.8,12.8,18,0.00,,,0.00,VWS V14.01,2013-08-29 23:16:00,
2013-08-29 18:18:00,90.3,41.1,29.68,WSW,248,10.7,10.7,18,0.00,,,0.00,VWS V14.01,2013-08-29 23:18:00,
2013-08-29 18:20:00,89.4,40.4,29.68,WSW,248,8.7,8.7,18,0.00,,,0.00,VWS V14.01,2013-08-29 23:20:00,
2013-08-29 18:22:00,90.1,41.0,29.68,SSW,202,12.1,12.1,18,0.00,,,0.00,VWS V14.01,2013-08-29 23:22:00,
2013-08-29 18:24:00,90.0,40.8,29.68,WSW,248,14.8,14.8,18,0.00,,,0.00,VWS V14.01,2013-08-29 23:24:00,
2013-08-29 18:25:00,89.2,40.2,29.68,WSW,248,16.8,16.8,18,0.00,,,0.00,VWS V14.01,2013-08-29 23:25:00,
2013-08-29 18:26:00,89.8,40.7,29.68,SSW,202,14.8,14.8,18,0.00,,,0.00,VWS V14.01,2013-08-29 23:26:00,
2013-08-29 18:28:00,89.6,40.5,29.68,SSW,202,10.7,10.7,18,0.00,,,0.00,VWS V14.01,2013-08-29 23:28:00,
2013-08-29 18:30:00,88.7,39.8,29.68,SSW,202,8.1,8.1,18,0.00,,,0.00,VWS V14.01,2013-08-29 23:30:00,
2013-08-29 18:32:00,89.4,40.4,29.68,SW,225,4.7,4.7,18,0.00,,,0.00,VWS V14.01,2013-08-29 23:32:00,
2013-08-29 18:34:00,89.4,40.4,29.68,SSW,202,19.5,19.5,18,0.00,,,0.00,VWS V14.01,2013-08-29 23:34:00,
2013-08-29 18:35:00,88.5,39.7,29.71,South,180,12.8,12.8,18,0.00,,,0.00,VWS V14.01,2013-08-29 23:35:00,
2013-08-29 18:36:00,89.2,40.2,29.68,WSW,248,19.5,19.5,18,0.00,,,0.00,VWS V14.01,2013-08-29 23:36:00,
2013-08-29 18:38:00,89.1,40.1,29.68,SSW,202,22.8,22.8,18,0.00,,,0.00,VWS V14.01,2013-08-29 23:38:00,
2013-08-29 18:40:00,88.0,39.2,29.71,SW,225,7.4,7.4,18,0.00,,,0.00,VWS V14.01,2013-08-29 23:40:00,
2013-08-29 18:42:00,88.7,39.8,29.68,SSW,202,8.7,8.7,18,0.00,,,0.00,VWS V14.01,2013-08-29 23:42:00,
2013-08-29 18:44:00,88.5,39.7,29.71,South,180,13.4,13.4,18,0.00,,,0.00,VWS V14.01,2013-08-29 23:44:00,
2013-08-29 18:45:00,88.3,39.5,29.71,South,180,8.7,8.7,18,0.00,,,0.00,VWS V14.01,2013-08-29 23:45:00,
2013-08-29 18:46:00,88.5,39.7,29.71,SSW,202,10.7,10.7,18,0.00,,,0.00,VWS V14.01,2013-08-29 23:46:00,
2013-08-29 18:48:00,88.3,39.5,29.71,SSW,202,16.1,16.1,18,0.00,,,0.00,VWS V14.01,2013-08-29 23:48:00,
2013-08-29 18:50:00,87.6,40.3,29.71,SSW,202,6.0,6.0,19,0.00,,,0.00,VWS V14.01,2013-08-29 23:50:00,
2013-08-29 18:52:00,88.0,39.2,29.71,West,270,16.1,16.1,18,0.00,,,0.00,VWS V14.01,2013-08-29 23:52:00,
2013-08-29 18:54:00,88.2,39.4,29.71,South,180,8.7,8.7,18,0.00,,,0.00,VWS V14.01,2013-08-29 23:54:00,
2013-08-29 18:55:00,86.9,39.7,29.71,SSW,202,6.0,6.0,19,0.00,,,0.00,VWS V14.01,2013-08-29 23:55:00,
2013-08-29 18:56:00,88.3,39.5,29.71,SW,225,6.0,6.0,18,0.00,,,0.00,VWS V14.01,2013-08-29 23:56:00,
2013-08-29 18:58:00,88.2,39.4,29.71,SSW,202,6.0,6.0,18,0.00,,,0.00,VWS V14.01,2013-08-29 23:58:00,
2013-08-29 19:00:00,86.4,39.3,29.71,South,180,7.4,7.4,19,0.00,,,0.00,VWS V14.01,2013-08-30 00:00:00,
2013-08-29 19:02:00,87.4,40.2,29.71,South,180,12.1,12.1,19,0.00,,,0.00,VWS V14.01,2013-08-30 00:02:00,
2013-08-29 19:04:00,87.1,39.9,29.71,SSW,202,6.7,6.7,19,0.00,,,0.00,VWS V14.01,2013-08-30 00:04:00,
2013-08-29 19:05:00,85.8,40.2,29.71,SSW,202,9.4,9.4,20,0.00,,,0.00,VWS V14.01,2013-08-30 00:05:00,
2013-08-29 19:06:00,86.9,39.7,29.71,WNW,292,10.7,10.7,19,0.00,,,0.00,VWS V14.01,2013-08-30 00:06:00,
2013-08-29 19:08:00,86.7,39.6,29.71,SW,225,4.0,4.3,19,0.00,,,0.00,VWS V14.01,2013-08-30 00:08:00,
2013-08-29 19:10:00,85.5,39.9,29.71,SSW,202,3.4,4.3,20,0.00,,,0.00,VWS V14.01,2013-08-30 00:10:00,
2013-08-29 19:12:00,86.2,39.1,29.71,SSW,202,7.4,7.4,19,0.00,,,0.00,VWS V14.01,2013-08-30 00:12:00,
2013-08-29 19:14:00,86.0,39.0,29.71,SSW,202,8.1,8.1,19,0.00,,,0.00,VWS V14.01,2013-08-30 00:14:00,
2013-08-29 19:15:00,85.1,39.6,29.71,SSW,202,8.1,8.1,20,0.00,,,0.00,VWS V14.01,2013-08-30 00:15:00,
2013-08-29 19:16:00,85.8,40.2,29.71,SW,225,12.1,12.1,20,0.00,,,0.00,VWS V14.01,2013-08-30 00:16:00,
2013-08-29 19:18:00,85.8,40.2,29.71,SSW,202,11.4,11.4,20,0.00,,,0.00,VWS V14.01,2013-08-30 00:18:00,
2013-08-29 19:20:00,84.7,39.3,29.71,SSW,202,8.1,8.1,20,0.00,,,0.00,VWS V14.01,2013-08-30 00:20:00,
2013-08-29 19:22:00,85.5,39.9,29.71,SSW,202,9.4,9.4,20,0.00,,,0.00,VWS V14.01,2013-08-30 00:22:00,
2013-08-29 19:24:00,85.3,39.7,29.71,South,180,7.4,7.4,20,0.00,,,0.00,VWS V14.01,2013-08-30 00:24:00,
2013-08-29 19:25:00,84.4,39.0,29.71,WSW,248,7.4,7.4,20,0.00,,,0.00,VWS V14.01,2013-08-30 00:25:00,
2013-08-29 19:26:00,85.1,39.6,29.71,SSW,202,7.4,7.4,20,0.00,,,0.00,VWS V14.01,2013-08-30 00:26:00,
2013-08-29 19:28:00,84.9,39.4,29.71,SSW,202,7.4,7.4,20,0.00,,,0.00,VWS V14.01,2013-08-30 00:28:00,
2013-08-29 19:30:00,84.2,40.1,29.71,SSW,202,7.4,7.4,21,0.00,,,0.00,VWS V14.01,2013-08-30 00:30:00,
2013-08-29 19:32:00,84.7,39.3,29.71,South,180,10.1,10.1,20,0.00,,,0.00,VWS V14.01,2013-08-30 00:32:00,
2013-08-29 19:34:00,84.6,39.1,29.71,SE,135,8.7,8.7,20,0.00,,,0.00,VWS V14.01,2013-08-30 00:34:00,
2013-08-29 19:35:00,83.8,39.8,29.71,SSW,202,6.7,6.7,21,0.00,,,0.00,VWS V14.01,2013-08-30 00:35:00,
2013-08-29 19:36:00,84.4,39.0,29.71,SE,135,4.0,4.0,20,0.00,,,0.00,VWS V14.01,2013-08-30 00:36:00,
2013-08-29 19:38:00,84.4,40.2,29.71,SSW,202,12.1,12.1,21,0.00,,,0.00,VWS V14.01,2013-08-30 00:38:00,
2013-08-29 19:40:00,83.5,40.7,29.71,WSW,248,8.1,8.1,22,0.00,,,0.00,VWS V14.01,2013-08-30 00:40:00,
2013-08-29 19:42:00,84.0,39.9,29.71,SSW,202,7.4,7.4,21,0.00,,,0.00,VWS V14.01,2013-08-30 00:42:00,
2013-08-29 19:44:00,83.8,39.8,29.71,South,180,4.0,4.0,21,0.00,,,0.00,VWS V14.01,2013-08-30 00:44:00,
2013-08-29 19:45:00,83.1,40.4,29.71,SSE,158,4.0,4.0,22,0.00,,,0.00,VWS V14.01,2013-08-30 00:45:00,
2013-08-29 19:46:00,83.8,39.8,29.71,SE,135,6.0,6.0,21,0.00,,,0.00,VWS V14.01,2013-08-30 00:46:00,
2013-08-29 19:48:00,83.7,40.8,29.71,SSW,202,4.0,4.3,22,0.00,,,0.00,VWS V14.01,2013-08-30 00:48:00,
2013-08-29 19:50:00,82.9,41.4,29.71,SW,225,4.7,4.7,23,0.00,,,0.00,VWS V14.01,2013-08-30 00:50:00,
2013-08-29 19:52:00,83.5,40.7,29.71,South,180,7.4,7.4,22,0.00,,,0.00,VWS V14.01,2013-08-30 00:52:00,
2013-08-29 19:54:00,83.3,40.5,29.71,SSW,202,8.7,8.7,22,0.00,,,0.00,VWS V14.01,2013-08-30 00:54:00,
2013-08-29 19:55:00,82.6,41.1,29.71,SSW,202,6.0,6.0,23,0.00,,,0.00,VWS V14.01,2013-08-30 00:55:00,
2013-08-29 19:56:00,83.1,40.4,29.71,SSW,202,7.4,7.4,22,0.00,,,0.00,VWS V14.01,2013-08-30 00:56:00,
2013-08-29 19:58:00,83.1,41.5,29.71,SSW,202,4.7,4.7,23,0.00,,,0.00,VWS V14.01,2013-08-30 00:58:00,
2013-08-29 20:00:00,82.2,41.9,29.71,SSW,202,6.0,6.0,24,0.00,,,0.00,VWS V14.01,2013-08-30 01:00:00,
2013-08-29 20:02:00,82.8,41.2,29.71,SW,225,6.7,6.7,23,0.00,,,0.00,VWS V14.01,2013-08-30 01:02:00,
2013-08-29 20:04:00,82.6,41.1,29.71,SW,225,8.1,8.1,23,0.00,,,0.00,VWS V14.01,2013-08-30 01:04:00,
2013-08-29 20:05:00,81.9,42.6,29.71,SSW,202,6.0,6.0,25,0.00,,,0.00,VWS V14.01,2013-08-30 01:05:00,
2013-08-29 20:06:00,82.6,41.1,29.71,South,180,8.1,8.1,23,0.00,,,0.00,VWS V14.01,2013-08-30 01:06:00,
2013-08-29 20:08:00,82.4,42.0,29.71,SW,225,8.1,8.1,24,0.00,,,0.00,VWS V14.01,2013-08-30 01:08:00,
2013-08-29 20:10:00,81.7,43.5,29.71,SSE,158,6.0,6.0,26,0.00,,,0.00,VWS V14.01,2013-08-30 01:10:00,
2013-08-29 20:12:00,82.0,41.7,29.71,SW,225,7.4,7.4,24,0.00,,,0.00,VWS V14.01,2013-08-30 01:12:00,
2013-08-29 20:14:00,82.0,42.8,29.71,SW,225,9.4,9.4,25,0.00,,,0.00,VWS V14.01,2013-08-30 01:14:00,
2013-08-29 20:15:00,81.3,44.2,29.71,SSW,202,4.0,4.0,27,0.00,,,0.00,VWS V14.01,2013-08-30 01:15:00,
2013-08-29 20:16:00,81.9,42.6,29.71,SSW,202,4.7,4.7,25,0.00,,,0.00,VWS V14.01,2013-08-30 01:16:00,
2013-08-29 20:18:00,81.9,42.6,29.71,SSW,202,9.4,9.4,25,0.00,,,0.00,VWS V14.01,2013-08-30 01:18:00,
2013-08-29 20:20:00,81.1,44.0,29.71,West,270,4.0,4.0,27,0.00,,,0.00,VWS V14.01,2013-08-30 01:20:00,
2013-08-29 20:22:00,81.5,43.3,29.71,South,180,6.7,6.7,26,0.00,,,0.00,VWS V14.01,2013-08-30 01:22:00,
2013-08-29 20:24:00,81.3,43.2,29.71,SSW,202,3.4,3.4,26,0.00,,,0.00,VWS V14.01,2013-08-30 01:24:00,
2013-08-29 20:25:00,81.0,44.8,29.71,SSW,202,4.0,4.0,28,0.00,,,0.00,VWS V14.01,2013-08-30 01:25:00,
2013-08-29 20:26:00,81.3,44.2,29.71,SSW,202,6.0,6.0,27,0.00,,,0.00,VWS V14.01,2013-08-30 01:26:00,
2013-08-29 20:28:00,81.1,44.0,29.71,SW,225,10.1,10.1,27,0.00,,,0.00,VWS V14.01,2013-08-30 01:28:00,
2013-08-29 20:30:00,80.6,45.4,29.71,South,180,7.4,7.4,29,0.00,,,0.00,VWS V14.01,2013-08-30 01:30:00,
2013-08-29 20:32:00,81.0,43.9,29.71,SW,225,6.0,6.0,27,0.00,,,0.00,VWS V14.01,2013-08-30 01:32:00,
2013-08-29 20:34:00,81.0,44.8,29.71,SW,225,6.0,6.0,28,0.00,,,0.00,VWS V14.01,2013-08-30 01:34:00,
2013-08-29 20:35:00,80.6,45.4,29.71,SSW,202,12.1,12.1,29,0.00,,,0.00,VWS V14.01,2013-08-30 01:35:00,
2013-08-29 20:36:00,81.0,44.8,29.71,SSW,202,4.0,4.0,28,0.00,,,0.00,VWS V14.01,2013-08-30 01:36:00,
2013-08-29 20:38:00,80.8,44.7,29.71,WSW,248,3.4,3.4,28,0.00,,,0.00,VWS V14.01,2013-08-30 01:38:00,
2013-08-29 20:40:00,80.4,46.2,29.71,NW,315,4.7,4.7,30,0.00,,,0.00,VWS V14.01,2013-08-30 01:40:00,
2013-08-29 20:42:00,80.6,45.4,29.71,SSW,202,9.4,9.4,29,0.00,,,0.00,VWS V14.01,2013-08-30 01:42:00,
2013-08-29 20:44:00,80.6,45.4,29.71,South,180,6.7,6.7,29,0.00,,,0.00,VWS V14.01,2013-08-30 01:44:00,
2013-08-29 20:45:00,80.2,46.0,29.71,SSW,202,4.7,4.7,30,0.00,,,0.00,VWS V14.01,2013-08-30 01:45:00,
2013-08-29 20:46:00,80.6,45.4,29.71,SSW,202,6.7,6.7,29,0.00,,,0.00,VWS V14.01,2013-08-30 01:46:00,
2013-08-29 20:48:00,80.4,46.2,29.71,SSW,202,6.0,6.0,30,0.00,,,0.00,VWS V14.01,2013-08-30 01:48:00,
2013-08-29 20:50:00,80.1,45.9,29.71,SSW,202,4.7,4.7,30,0.00,,,0.00,VWS V14.01,2013-08-30 01:50:00,
2013-08-29 20:52:00,80.4,46.2,29.71,SSW,202,6.0,6.0,30,0.00,,,0.00,VWS V14.01,2013-08-30 01:52:00,
2013-08-29 20:54:00,80.4,46.2,29.71,SSW,202,6.0,6.0,30,0.00,,,0.00,VWS V14.01,2013-08-30 01:54:00,
2013-08-29 20:55:00,80.1,45.9,29.71,SSW,202,6.7,6.7,30,0.00,,,0.00,VWS V14.01,2013-08-30 01:55:00,
2013-08-29 20:56:00,80.2,46.0,29.71,SSW,202,8.1,8.1,30,0.00,,,0.00,VWS V14.01,2013-08-30 01:56:00,
2013-08-29 20:58:00,80.2,46.0,29.71,SSW,202,14.8,14.8,30,0.00,,,0.00,VWS V14.01,2013-08-30 01:58:00,
2013-08-29 21:00:00,79.9,45.7,29.71,SW,225,6.0,6.0,30,0.00,,,0.00,VWS V14.01,2013-08-30 02:00:00,
2013-08-29 21:02:00,80.1,45.9,29.71,SSW,202,8.7,8.7,30,0.00,,,0.00,VWS V14.01,2013-08-30 02:02:00,
2013-08-29 21:04:00,80.1,45.9,29.71,South,180,7.4,7.4,30,0.00,,,0.00,VWS V14.01,2013-08-30 02:04:00,
2013-08-29 21:05:00,79.7,45.6,29.71,SSW,202,8.1,8.1,30,0.00,,,0.00,VWS V14.01,2013-08-30 02:05:00,
2013-08-29 21:06:00,80.1,45.9,29.71,SW,225,9.4,9.4,30,0.00,,,0.00,VWS V14.01,2013-08-30 02:06:00,
2013-08-29 21:08:00,80.1,45.9,29.71,SSW,202,10.7,10.7,30,0.00,,,0.00,VWS V14.01,2013-08-30 02:08:00,
2013-08-29 21:10:00,79.5,45.4,29.71,WSW,248,6.0,6.0,30,0.00,,,0.00,VWS V14.01,2013-08-30 02:10:00,
2013-08-29 21:12:00,79.9,45.7,29.71,SSW,202,7.4,7.4,30,0.00,,,0.00,VWS V14.01,2013-08-30 02:12:00,
2013-08-29 21:14:00,79.7,45.6,29.71,SSW,202,6.0,6.0,30,0.00,,,0.00,VWS V14.01,2013-08-30 02:14:00,
2013-08-29 21:15:00,79.3,45.2,29.71,SW,225,6.7,6.7,30,0.00,,,0.00,VWS V14.01,2013-08-30 02:15:00,
2013-08-29 21:16:00,79.7,45.6,29.71,South,180,4.7,4.7,30,0.00,,,0.00,VWS V14.01,2013-08-30 02:16:00,
2013-08-29 21:18:00,79.7,45.6,29.71,SW,225,9.4,9.4,30,0.00,,,0.00,VWS V14.01,2013-08-30 02:18:00,
2013-08-29 21:20:00,79.2,45.1,29.68,SSW,202,4.0,4.0,30,0.00,,,0.00,VWS V14.01,2013-08-30 02:20:00,
2013-08-29 21:22:00,79.5,45.4,29.71,South,180,6.0,6.0,30,0.00,,,0.00,VWS V14.01,2013-08-30 02:22:00,
2013-08-29 21:24:00,79.5,45.4,29.71,SSW,202,6.0,6.0,30,0.00,,,0.00,VWS V14.01,2013-08-30 02:24:00,
2013-08-29 21:25:00,79.2,45.1,29.68,SW,225,4.7,4.7,30,0.00,,,0.00,VWS V14.01,2013-08-30 02:25:00,
2013-08-29 21:26:00,79.3,45.2,29.71,SSW,202,6.0,6.0,30,0.00,,,0.00,VWS V14.01,2013-08-30 02:26:00,
2013-08-29 21:28:00,79.3,45.2,29.68,South,180,4.0,4.0,30,0.00,,,0.00,VWS V14.01,2013-08-30 02:28:00,
2013-08-29 21:30:00,79.0,44.9,29.68,SW,225,4.0,4.0,30,0.00,,,0.00,VWS V14.01,2013-08-30 02:30:00,
2013-08-29 21:32:00,79.2,45.1,29.68,SSW,202,8.1,8.1,30,0.00,,,0.00,VWS V14.01,2013-08-30 02:32:00,
2013-08-29 21:34:00,79.2,45.1,29.68,South,180,6.0,6.0,30,0.00,,,0.00,VWS V14.01,2013-08-30 02:34:00,
2013-08-29 21:35:00,79.0,44.9,29.71,SW,225,6.0,6.0,30,0.00,,,0.00,VWS V14.01,2013-08-30 02:35:00,
2013-08-29 21:36:00,79.0,44.9,29.68,SSW,202,4.7,4.7,30,0.00,,,0.00,VWS V14.01,2013-08-30 02:36:00,
2013-08-29 21:38:00,79.0,44.9,29.68,WSW,248,6.7,6.7,30,0.00,,,0.00,VWS V14.01,2013-08-30 02:38:00,
2013-08-29 21:40:00,79.0,45.8,29.71,SSW,202,4.7,4.7,31,0.00,,,0.00,VWS V14.01,2013-08-30 02:40:00,
2013-08-29 21:42:00,79.0,44.9,29.68,SSW,202,8.1,8.1,30,0.00,,,0.00,VWS V14.01,2013-08-30 02:42:00,
2013-08-29 21:44:00,79.0,44.9,29.71,South,180,4.7,4.7,30,0.00,,,0.00,VWS V14.01,2013-08-30 02:44:00,
2013-08-29 21:45:00,79.0,45.8,29.71,South,180,4.0,4.0,31,0.00,,,0.00,VWS V14.01,2013-08-30 02:45:00,
2013-08-29 21:46:00,79.0,44.9,29.71,SW,225,3.4,3.4,30,0.00,,,0.00,VWS V14.01,2013-08-30 02:46:00,
2013-08-29 21:48:00,79.0,44.9,29.71,SW,225,4.7,4.7,30,0.00,,,0.00,VWS V14.01,2013-08-30 02:48:00,
2013-08-29 21:50:00,79.0,45.8,29.71,SW,225,8.1,8.1,31,0.00,,,0.00,VWS V14.01,2013-08-30 02:50:00,
2013-08-29 21:52:00,79.0,45.8,29.71,SSW,202,6.0,6.0,31,0.00,,,0.00,VWS V14.01,2013-08-30 02:52:00,
2013-08-29 21:54:00,79.0,45.8,29.71,SSW,202,6.0,6.0,31,0.00,,,0.00,VWS V14.01,2013-08-30 02:54:00,
2013-08-29 21:55:00,78.8,45.6,29.71,SSW,202,3.4,3.4,31,0.00,,,0.00,VWS V14.01,2013-08-30 02:55:00,
2013-08-29 21:56:00,79.0,45.8,29.71,SSW,202,6.0,6.0,31,0.00,,,0.00,VWS V14.01,2013-08-30 02:56:00,
2013-08-29 21:58:00,79.0,45.8,29.71,SSW,202,6.0,6.0,31,0.00,,,0.00,VWS V14.01,2013-08-30 02:58:00,
2013-08-29 22:00:00,78.8,45.6,29.71,South,180,3.4,3.4,31,0.00,,,0.00,VWS V14.01,2013-08-30 03:00:00,
2013-08-29 22:02:00,78.8,45.6,29.71,SW,225,6.7,6.7,31,0.00,,,0.00,VWS V14.01,2013-08-30 03:02:00,
2013-08-29 22:04:00,78.8,45.6,29.71,South,180,6.0,6.0,31,0.00,,,0.00,VWS V14.01,2013-08-30 03:04:00,
2013-08-29 22:05:00,78.8,45.6,29.71,SSW,202,6.0,6.0,31,0.00,,,0.00,VWS V14.01,2013-08-30 03:05:00,
2013-08-29 22:06:00,78.8,45.6,29.71,SSW,202,4.0,4.0,31,0.00,,,0.00,VWS V14.01,2013-08-30 03:06:00,
2013-08-29 22:08:00,78.8,45.6,29.71,SSW,202,6.7,6.7,31,0.00,,,0.00,VWS V14.01,2013-08-30 03:08:00,
2013-08-29 22:10:00,78.6,46.3,29.71,SSW,202,6.0,6.0,32,0.00,,,0.00,VWS V14.01,2013-08-30 03:10:00,
2013-08-29 22:12:00,78.8,45.6,29.71,South,180,7.4,7.4,31,0.00,,,0.00,VWS V14.01,2013-08-30 03:12:00,
2013-08-29 22:14:00,78.8,45.6,29.71,SSW,202,4.0,4.0,31,0.00,,,0.00,VWS V14.01,2013-08-30 03:14:00,
2013-08-29 22:15:00,78.4,46.2,29.71,SSW,202,7.4,7.4,32,0.00,,,0.00,VWS V14.01,2013-08-30 03:15:00,
2013-08-29 22:16:00,78.8,45.6,29.71,SSW,202,6.7,6.7,31,0.00,,,0.00,VWS V14.01,2013-08-30 03:16:00,
2013-08-29 22:18:00,78.6,45.5,29.71,South,180,6.0,6.0,31,0.00,,,0.00,VWS V14.01,2013-08-30 03:18:00,
2013-08-29 22:20:00,78.3,46.0,29.71,SW,225,6.0,6.0,32,0.00,,,0.00,VWS V14.01,2013-08-30 03:20:00,
2013-08-29 22:22:00,78.6,46.3,29.71,SSW,202,6.7,6.7,32,0.00,,,0.00,VWS V14.01,2013-08-30 03:22:00,
2013-08-29 22:24:00,78.4,46.2,29.71,SSW,202,6.0,6.0,32,0.00,,,0.00,VWS V14.01,2013-08-30 03:24:00,
2013-08-29 22:25:00,78.3,46.0,29.71,SSW,202,4.0,4.0,32,0.00,,,0.00,VWS V14.01,2013-08-30 03:25:00,
2013-08-29 22:26:00,78.4,46.2,29.71,SSW,202,6.7,6.7,32,0.00,,,0.00,VWS V14.01,2013-08-30 03:26:00,
2013-08-29 22:28:00,78.4,46.2,29.71,SSW,202,6.7,6.7,32,0.00,,,0.00,VWS V14.01,2013-08-30 03:28:00,
2013-08-29 22:30:00,78.3,46.0,29.71,SSW,202,3.4,3.4,32,0.00,,,0.00,VWS V14.01,2013-08-30 03:30:00,
2013-08-29 22:32:00,78.3,46.0,29.71,SSW,202,10.1,10.1,32,0.00,,,0.00,VWS V14.01,2013-08-30 03:32:00,
2013-08-29 22:34:00,78.3,46.0,29.71,SW,225,0.0,2.5,32,0.00,,,0.00,VWS V14.01,2013-08-30 03:34:00,
2013-08-29 22:35:00,78.3,46.0,29.71,SW,225,7.4,7.4,32,0.00,,,0.00,VWS V14.01,2013-08-30 03:35:00,
2013-08-29 22:36:00,78.3,46.0,29.71,SSW,202,4.0,4.0,32,0.00,,,0.00,VWS V14.01,2013-08-30 03:36:00,
2013-08-29 22:38:00,78.3,46.0,29.71,SSW,202,4.0,4.0,32,0.00,,,0.00,VWS V14.01,2013-08-30 03:38:00,
2013-08-29 22:40:00,78.1,45.8,29.71,SSW,202,6.0,6.0,32,0.00,,,0.00,VWS V14.01,2013-08-30 03:40:00,
2013-08-29 22:42:00,78.3,46.0,29.71,South,180,7.4,7.4,32,0.00,,,0.00,VWS V14.01,2013-08-30 03:42:00,
2013-08-29 22:44:00,78.3,46.0,29.71,SW,225,6.7,6.7,32,0.00,,,0.00,VWS V14.01,2013-08-30 03:44:00,
2013-08-29 22:45:00,78.1,45.8,29.71,SW,225,6.0,6.0,32,0.00,,,0.00,VWS V14.01,2013-08-30 03:45:00,
2013-08-29 22:46:00,78.3,46.0,29.71,SW,225,6.7,6.7,32,0.00,,,0.00,VWS V14.01,2013-08-30 03:46:00,
2013-08-29 22:48:00,78.1,45.8,29.71,SSW,202,3.4,3.4,32,0.00,,,0.00,VWS V14.01,2013-08-30 03:48:00,
2013-08-29 22:50:00,77.9,46.5,29.71,SSW,202,4.7,4.7,33,0.00,,,0.00,VWS V14.01,2013-08-30 03:50:00,
2013-08-29 22:52:00,78.1,45.8,29.71,SW,225,7.4,7.4,32,0.00,,,0.00,VWS V14.01,2013-08-30 03:52:00,
2013-08-29 22:54:00,78.1,45.8,29.71,SSW,202,4.0,4.0,32,0.00,,,0.00,VWS V14.01,2013-08-30 03:54:00,
2013-08-29 22:55:00,77.9,46.5,29.71,SW,225,6.0,6.0,33,0.00,,,0.00,VWS V14.01,2013-08-30 03:55:00,
2013-08-29 22:56:00,78.1,45.8,29.71,SSW,202,8.1,8.1,32,0.00,,,0.00,VWS V14.01,2013-08-30 03:56:00,
2013-08-29 22:58:00,77.9,46.5,29.71,SSW,202,6.0,6.0,33,0.00,,,0.00,VWS V14.01,2013-08-30 03:58:00,
2013-08-29 23:00:00,77.7,46.3,29.71,WSW,248,4.7,4.7,33,0.00,,,0.00,VWS V14.01,2013-08-30 04:00:00,
2013-08-29 23:01:00,77.7,46.3,29.71,SSE,158,7.4,7.4,33,0.00,,,0.00,VWS V14.01,2013-08-30 04:01:00,
2013-08-29 23:02:00,77.9,46.5,29.71,SSW,202,4.7,4.7,33,0.00,,,0.00,VWS V14.01,2013-08-30 04:02:00,
2013-08-29 23:04:00,77.9,46.5,29.71,SW,225,6.0,6.0,33,0.00,,,0.00,VWS V14.01,2013-08-30 04:04:00,
2013-08-29 23:06:00,77.7,46.3,29.71,SSW,202,4.7,4.7,33,0.00,,,0.00,VWS V14.01,2013-08-30 04:06:00,
2013-08-29 23:08:00,77.7,46.3,29.71,WSW,248,4.7,4.7,33,0.00,,,0.00,VWS V14.01,2013-08-30 04:08:00,
2013-08-29 23:10:00,77.7,46.3,29.71,WSW,248,4.7,4.7,33,0.00,,,0.00,VWS V14.01,2013-08-30 04:10:00,
2013-08-29 23:11:00,77.7,46.3,29.71,SW,225,9.4,9.4,33,0.00,,,0.00,VWS V14.01,2013-08-30 04:11:00,
2013-08-29 23:12:00,77.7,46.3,29.71,WSW,248,8.1,8.1,33,0.00,,,0.00,VWS V14.01,2013-08-30 04:12:00,
2013-08-29 23:14:00,77.7,46.3,29.71,SSE,158,8.1,8.1,33,0.00,,,0.00,VWS V14.01,2013-08-30 04:14:00,
2013-08-29 23:16:00,77.7,47.1,29.71,South,180,7.4,7.4,34,0.00,,,0.00,VWS V14.01,2013-08-30 04:16:00,
2013-08-29 23:18:00,77.7,46.3,29.71,SSW,202,6.0,6.0,33,0.00,,,0.00,VWS V14.01,2013-08-30 04:18:00,
2013-08-29 23:20:00,77.7,46.3,29.71,South,180,4.7,4.7,33,0.00,,,0.00,VWS V14.01,2013-08-30 04:20:00,
2013-08-29 23:21:00,77.9,47.3,29.74,SSW,202,6.0,6.0,34,0.00,,,0.00,VWS V14.01,2013-08-30 04:21:00,
2013-08-29 23:22:00,77.7,46.3,29.71,West,270,4.7,4.7,33,0.00,,,0.00,VWS V14.01,2013-08-30 04:22:00,
2013-08-29 23:24:00,77.7,46.3,29.71,SSW,202,7.4,7.4,33,0.00,,,0.00,VWS V14.01,2013-08-30 04:24:00,
2013-08-29 23:26:00,77.9,47.3,29.74,SW,225,4.7,4.7,34,0.00,,,0.00,VWS V14.01,2013-08-30 04:26:00,
2013-08-29 23:28:00,77.7,47.1,29.74,WSW,248,8.1,8.1,34,0.00,,,0.00,VWS V14.01,2013-08-30 04:28:00,
2013-08-29 23:30:00,77.9,47.3,29.74,SSW,202,7.4,7.4,34,0.00,,,0.00,VWS V14.01,2013-08-30 04:30:00,
2013-08-29 23:31:00,77.7,47.1,29.74,West,270,12.8,12.8,34,0.00,,,0.00,VWS V14.01,2013-08-30 04:31:00,
2013-08-29 23:32:00,77.9,47.3,29.74,WSW,248,12.1,12.1,34,0.00,,,0.00,VWS V14.01,2013-08-30 04:32:00,
2013-08-29 23:34:00,77.9,47.3,29.74,SSW,202,10.1,10.1,34,0.00,,,0.00,VWS V14.01,2013-08-30 04:34:00,
2013-08-29 23:36:00,77.5,47.0,29.71,WSW,248,2.7,2.7,34,0.00,,,0.00,VWS V14.01,2013-08-30 04:36:00,
2013-08-29 23:38:00,77.7,47.1,29.74,South,180,4.0,4.0,34,0.00,,,0.00,VWS V14.01,2013-08-30 04:38:00,
2013-08-29 23:40:00,77.7,47.1,29.74,SSW,202,4.7,4.7,34,0.00,,,0.00,VWS V14.01,2013-08-30 04:40:00,
2013-08-29 23:41:00,77.2,46.7,29.71,SW,225,3.4,3.4,34,0.00,,,0.00,VWS V14.01,2013-08-30 04:41:00,
2013-08-29 23:42:00,77.7,47.1,29.74,SSW,202,3.4,4.7,34,0.00,,,0.00,VWS V14.01,2013-08-30 04:42:00,
2013-08-29 23:44:00,77.5,47.0,29.71,SSW,202,3.4,3.6,34,0.00,,,0.00,VWS V14.01,2013-08-30 04:44:00,
2013-08-29 23:46:00,77.0,47.3,29.71,West,270,0.0,2.0,35,0.00,,,0.00,VWS V14.01,2013-08-30 04:46:00,
2013-08-29 23:48:00,77.4,46.8,29.71,WSW,248,0.0,2.7,34,0.00,,,0.00,VWS V14.01,2013-08-30 04:48:00,
2013-08-29 23:50:00,77.4,46.8,29.71,South,180,4.0,4.0,34,0.00,,,0.00,VWS V14.01,2013-08-30 04:50:00,
2013-08-29 23:51:00,76.8,47.1,29.71,West,270,0.0,0.0,35,0.00,,,0.00,VWS V14.01,2013-08-30 04:51:00,
2013-08-29 23:52:00,77.2,46.7,29.71,SW,225,0.0,1.1,34,0.00,,,0.00,VWS V14.01,2013-08-30 04:52:00,
2013-08-29 23:54:00,77.2,46.7,29.71,SSW,202,0.0,1.6,34,0.00,,,0.00,VWS V14.01,2013-08-30 04:54:00,
2013-08-29 23:56:00,76.5,46.8,29.71,North,0,0.0,0.0,35,0.00,,,0.00,VWS V14.01,2013-08-30 04:56:00,
2013-08-29 23:58:00,77.0,47.3,29.71,West,270,0.0,1.6,35,0.00,,,0.00,VWS V14.01,2013-08-30 04:58:00,